Wetterdaten: Montag, 22.06.2009
Datum Zeit Temp. Innen Temp. Aussen UV X Diff Temp. Feuchte Inne Feuchte Auss Sonnenschein Luftdruck Regen ab 0,1 Wind Sonnenschein Windben
22.06.2009 00:00 19,8 C 11,6 C 0,0 UV-I 0,0 C 51 % 78 % 0 % 1023,4 hPa 0,0 l/m 0,0 km/h (0 Bft) 0 min 0,0 km/h (0 Bft)
22.06.2009 00:02 19,8 C 11,6 C 0,0 UV-I 0,0 C 51 % 78 % 0 % 1023,4 hPa 0,0 l/m 0,0 km/h (0 Bft) 0 min 0,0 km/h (0 Bft)
22.06.2009 00:04 19,8 C 11,6 C 0,0 UV-I 0,0 C 51 % 78 % 0 % 1023,4 hPa 0,0 l/m 0,0 km/h (0 Bft) 0 min 0,0 km/h (0 Bft)
22.06.2009 00:06 19,8 C 11,6 C 0,0 UV-I 0,0 C 51 % 78 % 0 % 1023,4 hPa 0,0 l/m 0,0 km/h (0 Bft) 0 min 0,0 km/h (0 Bft)
22.06.2009 00:08 19,8 C 11,5 C 0,0 UV-I 0,0 C 51 % 79 % 0 % 1023,4 hPa 0,0 l/m 0,0 km/h (0 Bft) 0 min 0,0 km/h (0 Bft)
22.06.2009 00:10 19,7 C 11,5 C 0,0 UV-I 0,0 C 51 % 79 % 0 % 1023,4 hPa 0,0 l/m 0,0 km/h (0 Bft) 0 min 0,0 km/h (0 Bft)
22.06.2009 00:12 19,7 C 11,5 C 0,0 UV-I 0,0 C 51 % 79 % 0 % 1023,4 hPa 0,0 l/m 0,0 km/h (0 Bft) 0 min 0,0 km/h (0 Bft)
22.06.2009 00:14 19,7 C 11,5 C 0,0 UV-I 0,0 C 51 % 79 % 0 % 1023,4 hPa 0,0 l/m 0,0 km/h (0 Bft) 0 min 0,0 km/h (0 Bft)
22.06.2009 00:16 19,7 C 11,5 C 0,0 UV-I 0,0 C 51 % 79 % 0 % 1023,4 hPa 0,0 l/m 0,0 km/h (0 Bft) 0 min 0,0 km/h (0 Bft)
22.06.2009 00:18 19,7 C 11,5 C 0,0 UV-I 0,0 C 51 % 79 % 0 % 1023,2 hPa 0,0 l/m 0,0 km/h (0 Bft) 0 min 0,0 km/h (0 Bft)
22.06.2009 00:20 19,6 C 11,5 C 0,0 UV-I 0,0 C 51 % 79 % 0 % 1023,2 hPa 0,0 l/m 0,0 km/h (0 Bft) 0 min 0,0 km/h (0 Bft)
22.06.2009 00:22 19,7 C 11,4 C 0,0 UV-I 0,0 C 51 % 79 % 0 % 1023,2 hPa 0,0 l/m 0,0 km/h (0 Bft) 0 min 0,0 km/h (0 Bft)
22.06.2009 00:24 19,6 C 11,3 C 0,0 UV-I 0,0 C 51 % 80 % 0 % 1023,2 hPa 0,0 l/m 0,0 km/h (0 Bft) 0 min 0,0 km/h (0 Bft)
22.06.2009 00:26 19,6 C 11,3 C 0,0 UV-I 0,0 C 51 % 80 % 0 % 1023,2 hPa 0,0 l/m 0,0 km/h (0 Bft) 0 min 0,0 km/h (0 Bft)
22.06.2009 00:28 19,6 C 11,3 C 0,0 UV-I 0,0 C 51 % 80 % 0 % 1023,2 hPa 0,0 l/m 0,0 km/h (0 Bft) 0 min 0,0 km/h (0 Bft)
22.06.2009 00:30 19,6 C 11,2 C 0,0 UV-I 0,0 C 51 % 80 % 0 % 1023,2 hPa 0,0 l/m 0,0 km/h (0 Bft) 0 min 0,0 km/h (0 Bft)
22.06.2009 00:32 19,6 C 11,3 C 0,0 UV-I 0,0 C 51 % 80 % 0 % 1023,2 hPa 0,0 l/m 0,0 km/h (0 Bft) 0 min 0,0 km/h (0 Bft)
22.06.2009 00:34 19,6 C 11,2 C 0,0 UV-I 0,0 C 51 % 80 % 0 % 1023,2 hPa 0,0 l/m 0,0 km/h (0 Bft) 0 min 0,0 km/h (0 Bft)
22.06.2009 00:36 19,6 C 11,2 C 0,0 UV-I 0,0 C 51 % 80 % 0 % 1023,2 hPa 0,0 l/m 0,0 km/h (0 Bft) 0 min 0,0 km/h (0 Bft)
22.06.2009 00:38 19,6 C 11,1 C 0,0 UV-I 0,0 C 51 % 80 % 0 % 1023,4 hPa 0,0 l/m 0,0 km/h (0 Bft) 0 min 0,0 km/h (0 Bft)
22.06.2009 00:40 19,6 C 11,1 C 0,0 UV-I 0,0 C 51 % 80 % 0 % 1023,4 hPa 0,0 l/m 0,0 km/h (0 Bft) 0 min 0,0 km/h (0 Bft)
22.06.2009 00:42 19,6 C 11,1 C 0,0 UV-I 0,0 C 51 % 80 % 0 % 1023,4 hPa 0,0 l/m 0,0 km/h (0 Bft) 0 min 0,0 km/h (0 Bft)
22.06.2009 00:44 19,6 C 11,0 C 0,0 UV-I 0,0 C 51 % 80 % 0 % 1023,4 hPa 0,0 l/m 0,0 km/h (0 Bft) 0 min 0,0 km/h (0 Bft)
22.06.2009 00:46 19,6 C 11,1 C 0,0 UV-I 0,0 C 51 % 80 % 0 % 1023,4 hPa 0,0 l/m 0,0 km/h (0 Bft) 0 min 0,0 km/h (0 Bft)
22.06.2009 00:48 19,6 C 10,9 C 0,0 UV-I 0,0 C 51 % 80 % 0 % 1023,4 hPa 0,0 l/m 0,0 km/h (0 Bft) 0 min 0,0 km/h (0 Bft)
22.06.2009 00:50 19,5 C 10,9 C 0,0 UV-I 0,0 C 51 % 80 % 0 % 1023,4 hPa 0,0 l/m 0,0 km/h (0 Bft) 0 min 0,0 km/h (0 Bft)
22.06.2009 00:52 19,5 C 10,9 C 0,0 UV-I 0,0 C 51 % 80 % 0 % 1023,4 hPa 0,0 l/m 0,0 km/h (0 Bft) 0 min 0,0 km/h (0 Bft)
22.06.2009 00:54 19,5 C 10,8 C 0,0 UV-I 0,0 C 51 % 80 % 0 % 1023,4 hPa 0,0 l/m 0,0 km/h (0 Bft) 0 min 0,0 km/h (0 Bft)
22.06.2009 00:56 19,5 C 10,9 C 0,0 UV-I 0,0 C 51 % 80 % 0 % 1023,4 hPa 0,0 l/m 0,0 km/h (0 Bft) 0 min 0,0 km/h (0 Bft)
22.06.2009 00:58 19,5 C 10,8 C 0,0 UV-I 0,0 C 51 % 81 % 0 % 1023,3 hPa 0,0 l/m 0,0 km/h (0 Bft) 0 min 0,0 km/h (0 Bft)
22.06.2009 01:00 19,5 C 10,7 C 0,0 UV-I 0,0 C 51 % 81 % 0 % 1023,3 hPa 0,0 l/m 0,0 km/h (0 Bft) 0 min 0,0 km/h (0 Bft)
22.06.2009 01:02 19,5 C 10,7 C 0,0 UV-I 0,0 C 51 % 81 % 0 % 1023,3 hPa 0,0 l/m 0,0 km/h (0 Bft) 0 min 0,0 km/h (0 Bft)
22.06.2009 01:04 19,5 C 10,7 C 0,0 UV-I 0,0 C 51 % 81 % 0 % 1023,3 hPa 0,0 l/m 0,0 km/h (0 Bft) 0 min 0,0 km/h (0 Bft)
22.06.2009 01:06 19,4 C 10,6 C 0,0 UV-I 0,0 C 51 % 81 % 0 % 1023,3 hPa 0,0 l/m 0,0 km/h (0 Bft) 0 min 0,0 km/h (0 Bft)
22.06.2009 01:08 19,4 C 10,6 C 0,0 UV-I 0,0 C 51 % 81 % 0 % 1023,3 hPa 0,0 l/m 0,0 km/h (0 Bft) 0 min 0,0 km/h (0 Bft)
22.06.2009 01:10 19,4 C 10,6 C 0,0 UV-I 0,0 C 51 % 81 % 0 % 1023,3 hPa 0,0 l/m 0,0 km/h (0 Bft) 0 min 0,0 km/h (0 Bft)
22.06.2009 01:12 19,4 C 10,5 C 0,0 UV-I 0,0 C 51 % 81 % 0 % 1023,3 hPa 0,0 l/m 0,0 km/h (0 Bft) 0 min 0,0 km/h (0 Bft)
22.06.2009 01:14 19,4 C 10,5 C 0,0 UV-I 0,0 C 51 % 81 % 0 % 1023,3 hPa 0,0 l/m 0,0 km/h (0 Bft) 0 min 0,0 km/h (0 Bft)
22.06.2009 01:16 19,4 C 10,4 C 0,0 UV-I 0,0 C 51 % 82 % 0 % 1023,3 hPa 0,0 l/m 0,0 km/h (0 Bft) 0 min 0,0 km/h (0 Bft)
22.06.2009 01:18 19,4 C 10,4 C 0,0 UV-I 0,0 C 51 % 82 % 0 % 1023,3 hPa 0,0 l/m 0,0 km/h (0 Bft) 0 min 0,0 km/h (0 Bft)
22.06.2009 01:20 19,4 C 10,5 C 0,0 UV-I 0,0 C 51 % 82 % 0 % 1023,3 hPa 0,0 l/m 0,0 km/h (0 Bft) 0 min 0,0 km/h (0 Bft)
22.06.2009 01:22 19,2 C 10,4 C 0,0 UV-I 0,0 C 51 % 82 % 0 % 1023,3 hPa 0,0 l/m 0,0 km/h (0 Bft) 0 min 0,0 km/h (0 Bft)
22.06.2009 01:24 19,2 C 10,3 C 0,0 UV-I 0,0 C 51 % 82 % 0 % 1023,3 hPa 0,0 l/m 0,0 km/h (0 Bft) 0 min 0,0 km/h (0 Bft)
22.06.2009 01:26 19,2 C 10,3 C 0,0 UV-I 0,0 C 51 % 82 % 0 % 1023,3 hPa 0,0 l/m 0,0 km/h (0 Bft) 0 min 0,0 km/h (0 Bft)
22.06.2009 01:28 19,3 C 10,2 C 0,0 UV-I 0,0 C 51 % 82 % 0 % 1023,3 hPa 0,0 l/m 0,0 km/h (0 Bft) 0 min 0,0 km/h (0 Bft)
22.06.2009 01:30 19,3 C 10,2 C 0,0 UV-I 0,0 C 51 % 82 % 0 % 1023,3 hPa 0,0 l/m 0,0 km/h (0 Bft) 0 min 0,0 km/h (0 Bft)
22.06.2009 01:32 19,2 C 10,3 C 0,0 UV-I 0,0 C 51 % 82 % 0 % 1023,3 hPa 0,0 l/m 0,0 km/h (0 Bft) 0 min 0,0 km/h (0 Bft)
22.06.2009 01:34 19,2 C 10,1 C 0,0 UV-I 0,0 C 51 % 82 % 0 % 1023,3 hPa 0,0 l/m 0,0 km/h (0 Bft) 0 min 0,0 km/h (0 Bft)
22.06.2009 01:36 19,2 C 10,1 C 0,0 UV-I 0,0 C 51 % 82 % 0 % 1023,3 hPa 0,0 l/m 0,0 km/h (0 Bft) 0 min 0,0 km/h (0 Bft)
22.06.2009 01:38 19,2 C 10,1 C 0,0 UV-I 0,0 C 51 % 82 % 0 % 1023,6 hPa 0,0 l/m 0,0 km/h (0 Bft) 0 min 0,0 km/h (0 Bft)
22.06.2009 01:40 19,2 C 10,0 C 0,0 UV-I 0,0 C 51 % 82 % 0 % 1023,6 hPa 0,0 l/m 0,0 km/h (0 Bft) 0 min 0,0 km/h (0 Bft)
22.06.2009 01:42 19,2 C 10,1 C 0,0 UV-I 0,0 C 51 % 82 % 0 % 1023,6 hPa 0,0 l/m 0,0 km/h (0 Bft) 0 min 0,0 km/h (0 Bft)
22.06.2009 01:44 19,2 C 10,0 C 0,0 UV-I 0,0 C 52 % 83 % 0 % 1023,6 hPa 0,0 l/m 0,0 km/h (0 Bft) 0 min 0,0 km/h (0 Bft)
22.06.2009 01:46 19,2 C 10,0 C 0,0 UV-I 0,0 C 52 % 83 % 0 % 1023,6 hPa 0,0 l/m 0,0 km/h (0 Bft) 0 min 0,0 km/h (0 Bft)
22.06.2009 01:48 19,2 C 9,9 C 0,0 UV-I 0,0 C 52 % 83 % 0 % 1023,6 hPa 0,0 l/m 0,0 km/h (0 Bft) 0 min 0,0 km/h (0 Bft)
22.06.2009 01:50 19,2 C 9,9 C 0,0 UV-I 0,0 C 52 % 83 % 0 % 1023,6 hPa 0,0 l/m 0,0 km/h (0 Bft) 0 min 0,0 km/h (0 Bft)
22.06.2009 01:52 19,2 C 9,8 C 0,0 UV-I 0,0 C 52 % 83 % 0 % 1023,6 hPa 0,0 l/m 0,0 km/h (0 Bft) 0 min 0,0 km/h (0 Bft)
22.06.2009 01:54 19,2 C 9,9 C 0,0 UV-I 0,0 C 52 % 84 % 0 % 1023,6 hPa 0,0 l/m 0,0 km/h (0 Bft) 0 min 0,0 km/h (0 Bft)
22.06.2009 01:56 19,1 C 9,8 C 0,0 UV-I 0,0 C 52 % 84 % 0 % 1023,6 hPa 0,0 l/m 0,0 km/h (0 Bft) 0 min 0,0 km/h (0 Bft)
22.06.2009 01:58 19,1 C 9,7 C 0,0 UV-I 0,0 C 52 % 84 % 0 % 1023,2 hPa 0,0 l/m 0,0 km/h (0 Bft) 0 min 0,0 km/h (0 Bft)
22.06.2009 02:00 19,1 C 9,7 C 0,0 UV-I 0,0 C 52 % 84 % 0 % 1023,2 hPa 0,0 l/m 0,0 km/h (0 Bft) 0 min 0,0 km/h (0 Bft)
22.06.2009 02:02 19,1 C 9,6 C 0,0 UV-I 0,0 C 52 % 85 % 0 % 1023,2 hPa 0,0 l/m 0,0 km/h (0 Bft) 0 min 0,0 km/h (0 Bft)
22.06.2009 02:04 19,1 C 9,6 C 0,0 UV-I 0,0 C 52 % 85 % 0 % 1023,2 hPa 0,0 l/m 0,0 km/h (0 Bft) 0 min 0,0 km/h (0 Bft)
22.06.2009 02:06 19,1 C 9,7 C 0,0 UV-I 0,0 C 52 % 85 % 0 % 1023,2 hPa 0,0 l/m 0,0 km/h (0 Bft) 0 min 0,0 km/h (0 Bft)
22.06.2009 02:08 19,1 C 9,6 C 0,0 UV-I 0,0 C 52 % 85 % 0 % 1023,2 hPa 0,0 l/m 0,0 km/h (0 Bft) 0 min 0,0 km/h (0 Bft)
22.06.2009 02:10 19,1 C 9,6 C 0,0 UV-I 0,0 C 52 % 85 % 0 % 1023,2 hPa 0,0 l/m 0,0 km/h (0 Bft) 0 min 0,0 km/h (0 Bft)
22.06.2009 02:12 19,0 C 9,5 C 0,0 UV-I 0,0 C 52 % 85 % 0 % 1023,2 hPa 0,0 l/m 0,0 km/h (0 Bft) 0 min 0,0 km/h (0 Bft)
22.06.2009 02:14 19,0 C 9,5 C 0,0 UV-I 0,0 C 52 % 85 % 0 % 1023,2 hPa 0,0 l/m 0,0 km/h (0 Bft) 0 min 0,0 km/h (0 Bft)
22.06.2009 02:16 19,1 C 9,5 C 0,0 UV-I 0,0 C 52 % 85 % 0 % 1023,2 hPa 0,0 l/m 0,0 km/h (0 Bft) 0 min 0,0 km/h (0 Bft)
22.06.2009 02:18 19,0 C 9,5 C 0,0 UV-I 0,0 C 52 % 85 % 0 % 1023,3 hPa 0,0 l/m 0,0 km/h (0 Bft) 0 min 0,0 km/h (0 Bft)
22.06.2009 02:20 19,0 C 9,5 C 0,0 UV-I 0,0 C 53 % 85 % 0 % 1023,3 hPa 0,0 l/m 0,0 km/h (0 Bft) 0 min 0,0 km/h (0 Bft)
22.06.2009 02:22 19,0 C 9,5 C 0,0 UV-I 0,0 C 53 % 85 % 0 % 1023,3 hPa 0,0 l/m 0,0 km/h (0 Bft) 0 min 0,0 km/h (0 Bft)
22.06.2009 02:24 19,0 C 9,4 C 0,0 UV-I 0,0 C 53 % 86 % 0 % 1023,3 hPa 0,0 l/m 0,0 km/h (0 Bft) 0 min 0,0 km/h (0 Bft)
22.06.2009 02:26 19,0 C 9,3 C 0,0 UV-I 0,0 C 53 % 86 % 0 % 1023,3 hPa 0,0 l/m 0,0 km/h (0 Bft) 0 min 0,0 km/h (0 Bft)
22.06.2009 02:28 19,0 C 9,3 C 0,0 UV-I 0,0 C 53 % 86 % 0 % 1023,3 hPa 0,0 l/m 0,0 km/h (0 Bft) 0 min 0,0 km/h (0 Bft)
22.06.2009 02:30 19,0 C 9,3 C 0,0 UV-I 0,0 C 53 % 86 % 0 % 1023,3 hPa 0,0 l/m 0,0 km/h (0 Bft) 0 min 0,0 km/h (0 Bft)
22.06.2009 02:32 19,0 C 9,3 C 0,0 UV-I 0,0 C 53 % 86 % 0 % 1023,3 hPa 0,0 l/m 0,0 km/h (0 Bft) 0 min 0,0 km/h (0 Bft)
22.06.2009 02:34 19,0 C 9,2 C 0,0 UV-I 0,0 C 53 % 86 % 0 % 1023,3 hPa 0,0 l/m 0,0 km/h (0 Bft) 0 min 0,0 km/h (0 Bft)
22.06.2009 02:36 19,0 C 9,2 C 0,0 UV-I 0,0 C 53 % 86 % 0 % 1023,3 hPa 0,0 l/m 0,0 km/h (0 Bft) 0 min 0,0 km/h (0 Bft)
22.06.2009 02:38 19,0 C 9,2 C 0,0 UV-I 0,0 C 53 % 86 % 0 % 1023,4 hPa 0,0 l/m 0,0 km/h (0 Bft) 0 min 0,0 km/h (0 Bft)
22.06.2009 02:40 19,0 C 9,3 C 0,0 UV-I 0,0 C 53 % 87 % 0 % 1023,4 hPa 0,0 l/m 0,0 km/h (0 Bft) 0 min 0,0 km/h (0 Bft)
22.06.2009 02:42 19,0 C 9,3 C 0,0 UV-I 0,0 C 53 % 87 % 0 % 1023,4 hPa 0,0 l/m 0,0 km/h (0 Bft) 0 min 0,0 km/h (0 Bft)
22.06.2009 02:44 18,9 C 9,2 C 0,0 UV-I 0,0 C 53 % 87 % 0 % 1023,4 hPa 0,0 l/m 0,0 km/h (0 Bft) 0 min 0,0 km/h (0 Bft)
22.06.2009 02:46 18,9 C 9,2 C 0,0 UV-I 0,0 C 53 % 87 % 0 % 1023,4 hPa 0,0 l/m 0,0 km/h (0 Bft) 0 min 0,0 km/h (0 Bft)
22.06.2009 02:48 18,9 C 9,2 C 0,0 UV-I 0,0 C 53 % 87 % 0 % 1023,4 hPa 0,0 l/m 0,0 km/h (0 Bft) 0 min 0,0 km/h (0 Bft)
22.06.2009 02:50 18,9 C 9,1 C 0,0 UV-I 0,0 C 53 % 87 % 0 % 1023,4 hPa 0,0 l/m 0,0 km/h (0 Bft) 0 min 0,0 km/h (0 Bft)
22.06.2009 02:52 18,9 C 9,1 C 0,0 UV-I 0,0 C 53 % 87 % 0 % 1023,4 hPa 0,0 l/m 0,0 km/h (0 Bft) 0 min 0,0 km/h (0 Bft)
22.06.2009 02:54 18,9 C 9,1 C 0,0 UV-I 0,0 C 53 % 87 % 0 % 1023,4 hPa 0,0 l/m 0,0 km/h (0 Bft) 0 min 0,0 km/h (0 Bft)
22.06.2009 02:56 18,9 C 9,1 C 0,0 UV-I 0,0 C 53 % 87 % 0 % 1023,4 hPa 0,0 l/m 0,0 km/h (0 Bft) 0 min 0,0 km/h (0 Bft)
22.06.2009 02:58 18,9 C 9,1 C 0,0 UV-I 0,0 C 53 % 87 % 0 % 1023,1 hPa 0,0 l/m 0,0 km/h (0 Bft) 0 min 0,0 km/h (0 Bft)
22.06.2009 03:00 18,9 C 9,0 C 0,0 UV-I 0,0 C 53 % 87 % 0 % 1023,1 hPa 0,0 l/m 0,0 km/h (0 Bft) 0 min 0,0 km/h (0 Bft)
22.06.2009 03:02 18,8 C 9,1 C 0,0 UV-I 0,0 C 53 % 88 % 0 % 1023,1 hPa 0,0 l/m 0,0 km/h (0 Bft) 0 min 0,0 km/h (0 Bft)
22.06.2009 03:04 18,8 C 9,1 C 0,0 UV-I 0,0 C 53 % 88 % 0 % 1023,1 hPa 0,0 l/m 0,0 km/h (0 Bft) 0 min 0,0 km/h (0 Bft)
22.06.2009 03:06 18,8 C 9,0 C 0,0 UV-I 0,0 C 53 % 88 % 0 % 1023,1 hPa 0,0 l/m 0,0 km/h (0 Bft) 0 min 0,0 km/h (0 Bft)
22.06.2009 03:08 18,8 C 9,1 C 0,0 UV-I 0,0 C 53 % 88 % 0 % 1023,1 hPa 0,0 l/m 0,0 km/h (0 Bft) 0 min 0,0 km/h (0 Bft)
22.06.2009 03:10 18,8 C 9,1 C 0,0 UV-I 0,0 C 53 % 88 % 0 % 1023,1 hPa 0,0 l/m 0,0 km/h (0 Bft) 0 min 0,0 km/h (0 Bft)
22.06.2009 03:12 18,8 C 9,1 C 0,0 UV-I 0,0 C 53 % 88 % 0 % 1023,1 hPa 0,0 l/m 0,0 km/h (0 Bft) 0 min 0,0 km/h (0 Bft)
22.06.2009 03:14 18,8 C 9,1 C 0,0 UV-I 0,0 C 53 % 88 % 0 % 1023,1 hPa 0,0 l/m 0,0 km/h (0 Bft) 0 min 0,0 km/h (0 Bft)
22.06.2009 03:16 18,8 C 9,1 C 0,0 UV-I 0,0 C 53 % 88 % 0 % 1023,1 hPa 0,0 l/m 0,0 km/h (0 Bft) 0 min 0,0 km/h (0 Bft)
22.06.2009 03:18 18,8 C 9,1 C 0,0 UV-I 0,0 C 53 % 88 % 0 % 1023,2 hPa 0,0 l/m 0,0 km/h (0 Bft) 0 min 0,0 km/h (0 Bft)
22.06.2009 03:20 18,8 C 9,0 C 0,0 UV-I 0,0 C 53 % 88 % 0 % 1023,2 hPa 0,0 l/m 0,0 km/h (0 Bft) 0 min 0,0 km/h (0 Bft)
22.06.2009 03:22 18,8 C 8,9 C 0,0 UV-I 0,0 C 53 % 88 % 0 % 1023,2 hPa 0,0 l/m 0,0 km/h (0 Bft) 0 min 0,0 km/h (0 Bft)
22.06.2009 03:24 18,8 C 8,9 C 0,0 UV-I 0,0 C 53 % 88 % 0 % 1023,2 hPa 0,0 l/m 0,0 km/h (0 Bft) 0 min 0,0 km/h (0 Bft)
22.06.2009 03:26 18,8 C 8,9 C 0,0 UV-I 0,0 C 53 % 88 % 0 % 1023,2 hPa 0,0 l/m 0,0 km/h (0 Bft) 0 min 0,0 km/h (0 Bft)
22.06.2009 03:28 18,8 C 8,9 C 0,0 UV-I 0,0 C 53 % 89 % 0 % 1023,2 hPa 0,0 l/m 0,0 km/h (0 Bft) 0 min 0,0 km/h (0 Bft)
22.06.2009 03:30 18,8 C 8,9 C 0,0 UV-I 0,0 C 54 % 89 % 0 % 1023,2 hPa 0,0 l/m 0,0 km/h (0 Bft) 0 min 0,0 km/h (0 Bft)
22.06.2009 03:32 18,7 C 8,9 C 0,0 UV-I 0,0 C 54 % 89 % 0 % 1023,2 hPa 0,0 l/m 0,0 km/h (0 Bft) 0 min 0,0 km/h (0 Bft)
22.06.2009 03:34 18,8 C 8,9 C 0,0 UV-I 0,0 C 53 % 89 % 0 % 1023,2 hPa 0,0 l/m 0,0 km/h (0 Bft) 0 min 0,0 km/h (0 Bft)
22.06.2009 03:36 18,7 C 8,9 C 0,0 UV-I 0,0 C 54 % 89 % 0 % 1023,2 hPa 0,0 l/m 0,0 km/h (0 Bft) 0 min 0,0 km/h (0 Bft)
22.06.2009 03:38 18,7 C 8,9 C 0,0 UV-I 0,0 C 53 % 89 % 0 % 1023,6 hPa 0,0 l/m 0,0 km/h (0 Bft) 0 min 0,0 km/h (0 Bft)
22.06.2009 03:40 18,7 C 8,8 C 0,0 UV-I 0,0 C 54 % 89 % 0 % 1023,6 hPa 0,0 l/m 0,0 km/h (0 Bft) 0 min 0,0 km/h (0 Bft)
22.06.2009 03:42 18,7 C 8,8 C 0,0 UV-I 0,0 C 53 % 89 % 0 % 1023,6 hPa 0,0 l/m 0,0 km/h (0 Bft) 0 min 0,0 km/h (0 Bft)
22.06.2009 03:44 18,7 C 8,8 C 0,0 UV-I 0,0 C 54 % 89 % 0 % 1023,6 hPa 0,0 l/m 0,0 km/h (0 Bft) 0 min 0,0 km/h (0 Bft)
22.06.2009 03:46 18,7 C 8,8 C 0,0 UV-I 0,0 C 54 % 89 % 0 % 1023,6 hPa 0,0 l/m 0,0 km/h (0 Bft) 0 min 0,0 km/h (0 Bft)
22.06.2009 03:48 18,7 C 8,9 C 0,0 UV-I 0,0 C 53 % 89 % 0 % 1023,6 hPa 0,0 l/m 0,0 km/h (0 Bft) 0 min 0,0 km/h (0 Bft)
22.06.2009 03:50 18,7 C 8,8 C 0,0 UV-I 0,0 C 53 % 89 % 0 % 1023,6 hPa 0,0 l/m 0,0 km/h (0 Bft) 0 min 0,0 km/h (0 Bft)
22.06.2009 03:52 18,7 C 8,8 C 0,0 UV-I 0,0 C 54 % 89 % 0 % 1023,6 hPa 0,0 l/m 0,2 km/h (0 Bft) 0 min 0,0 km/h (0 Bft)
22.06.2009 03:54 18,7 C 8,9 C 0,0 UV-I 0,0 C 54 % 90 % 0 % 1023,6 hPa 0,0 l/m 0,2 km/h (0 Bft) 0 min 3,8 km/h (1 Bft)
22.06.2009 03:56 18,7 C 8,9 C 0,0 UV-I 0,0 C 54 % 90 % 0 % 1023,6 hPa 0,0 l/m 0,2 km/h (0 Bft) 0 min 0,0 km/h (0 Bft)
22.06.2009 03:58 18,7 C 8,8 C 0,0 UV-I 0,0 C 54 % 89 % 0 % 1023,6 hPa 0,0 l/m 0,2 km/h (0 Bft) 0 min 0,0 km/h (0 Bft)
22.06.2009 04:00 18,6 C 8,8 C 0,0 UV-I 0,0 C 54 % 89 % 0 % 1023,6 hPa 0,0 l/m 0,2 km/h (0 Bft) 0 min 0,0 km/h (0 Bft)
22.06.2009 04:02 18,6 C 8,8 C 0,0 UV-I 0,0 C 53 % 89 % 0 % 1023,6 hPa 0,0 l/m 0,0 km/h (0 Bft) 0 min 0,0 km/h (0 Bft)
22.06.2009 04:04 18,6 C 8,7 C 0,0 UV-I 0,0 C 53 % 89 % 0 % 1023,6 hPa 0,0 l/m 0,0 km/h (0 Bft) 0 min 0,0 km/h (0 Bft)
22.06.2009 04:06 18,6 C 8,7 C 0,0 UV-I 0,0 C 53 % 89 % 0 % 1023,6 hPa 0,0 l/m 0,0 km/h (0 Bft) 0 min 0,0 km/h (0 Bft)
22.06.2009 04:08 18,6 C 8,6 C 0,0 UV-I 0,0 C 53 % 89 % 0 % 1023,6 hPa 0,0 l/m 0,0 km/h (0 Bft) 0 min 0,0 km/h (0 Bft)
22.06.2009 04:10 18,6 C 8,6 C 0,0 UV-I 0,0 C 53 % 89 % 0 % 1023,6 hPa 0,0 l/m 0,0 km/h (0 Bft) 0 min 0,0 km/h (0 Bft)
22.06.2009 04:12 18,6 C 8,7 C 0,0 UV-I 0,0 C 53 % 89 % 0 % 1023,6 hPa 0,0 l/m 0,0 km/h (0 Bft) 0 min 0,0 km/h (0 Bft)
22.06.2009 04:14 18,6 C 8,7 C 0,0 UV-I 0,0 C 53 % 89 % 0 % 1023,6 hPa 0,0 l/m 0,0 km/h (0 Bft) 0 min 0,0 km/h (0 Bft)
22.06.2009 04:16 18,6 C 8,7 C 0,0 UV-I 0,0 C 53 % 89 % 0 % 1023,6 hPa 0,0 l/m 0,0 km/h (0 Bft) 0 min 0,0 km/h (0 Bft)
22.06.2009 04:18 18,6 C 8,7 C 0,0 UV-I 0,0 C 54 % 89 % 0 % 1023,4 hPa 0,0 l/m 0,0 km/h (0 Bft) 0 min 0,0 km/h (0 Bft)
22.06.2009 04:20 18,6 C 8,5 C 0,0 UV-I 0,0 C 54 % 89 % 0 % 1023,4 hPa 0,0 l/m 0,0 km/h (0 Bft) 0 min 0,0 km/h (0 Bft)
22.06.2009 04:22 18,6 C 8,5 C 0,0 UV-I 0,0 C 54 % 89 % 0 % 1023,4 hPa 0,0 l/m 0,0 km/h (0 Bft) 0 min 0,0 km/h (0 Bft)
22.06.2009 04:24 18,6 C 8,5 C 0,0 UV-I 0,0 C 54 % 89 % 0 % 1023,4 hPa 0,0 l/m 0,0 km/h (0 Bft) 0 min 0,0 km/h (0 Bft)
22.06.2009 04:26 18,6 C 8,5 C 0,0 UV-I 0,0 C 54 % 89 % 0 % 1023,4 hPa 0,0 l/m 0,0 km/h (0 Bft) 0 min 0,0 km/h (0 Bft)
22.06.2009 04:28 18,6 C 8,5 C 0,0 UV-I 0,0 C 54 % 89 % 0 % 1023,4 hPa 0,0 l/m 0,0 km/h (0 Bft) 0 min 0,0 km/h (0 Bft)
22.06.2009 04:30 18,6 C 8,5 C 0,0 UV-I 0,0 C 54 % 89 % 0 % 1023,4 hPa 0,0 l/m 0,0 km/h (0 Bft) 0 min 0,0 km/h (0 Bft)
22.06.2009 04:32 18,6 C 8,5 C 0,0 UV-I 0,0 C 54 % 89 % 0 % 1023,4 hPa 0,0 l/m 0,0 km/h (0 Bft) 0 min 0,0 km/h (0 Bft)
22.06.2009 04:34 18,5 C 8,4 C 0,0 UV-I 0,0 C 54 % 89 % 0 % 1023,4 hPa 0,0 l/m 0,0 km/h (0 Bft) 0 min 0,0 km/h (0 Bft)
22.06.2009 04:36 18,5 C 8,4 C 0,0 UV-I 0,0 C 54 % 89 % 0 % 1023,4 hPa 0,0 l/m 0,0 km/h (0 Bft) 0 min 0,0 km/h (0 Bft)
22.06.2009 04:38 18,5 C 8,4 C 0,0 UV-I 0,0 C 54 % 89 % 0 % 1023,6 hPa 0,0 l/m 0,0 km/h (0 Bft) 0 min 0,0 km/h (0 Bft)
22.06.2009 04:40 18,5 C 8,5 C 0,0 UV-I 0,0 C 54 % 90 % 0 % 1023,6 hPa 0,0 l/m 0,0 km/h (0 Bft) 0 min 0,0 km/h (0 Bft)
22.06.2009 04:42 18,5 C 8,5 C 0,0 UV-I 0,0 C 54 % 90 % 0 % 1023,6 hPa 0,0 l/m 0,0 km/h (0 Bft) 0 min 0,0 km/h (0 Bft)
22.06.2009 04:44 18,5 C 8,4 C 0,0 UV-I 0,0 C 54 % 90 % 0 % 1023,6 hPa 0,0 l/m 0,0 km/h (0 Bft) 0 min 0,0 km/h (0 Bft)
22.06.2009 04:46 18,5 C 8,4 C 0,0 UV-I 0,0 C 54 % 90 % 0 % 1023,6 hPa 0,0 l/m 0,0 km/h (0 Bft) 0 min 0,0 km/h (0 Bft)
22.06.2009 04:48 18,5 C 8,5 C 0,0 UV-I 0,0 C 54 % 90 % 0 % 1023,6 hPa 0,0 l/m 0,0 km/h (0 Bft) 0 min 0,0 km/h (0 Bft)
22.06.2009 04:50 18,5 C 8,5 C 0,0 UV-I 0,0 C 54 % 90 % 0 % 1023,6 hPa 0,0 l/m 0,0 km/h (0 Bft) 0 min 0,0 km/h (0 Bft)
22.06.2009 04:52 18,5 C 8,4 C 0,0 UV-I 0,0 C 54 % 90 % 0 % 1023,6 hPa 0,0 l/m 0,0 km/h (0 Bft) 0 min 0,0 km/h (0 Bft)
22.06.2009 04:54 18,5 C 8,3 C 0,0 UV-I 0,0 C 54 % 90 % 0 % 1023,6 hPa 0,0 l/m 0,0 km/h (0 Bft) 0 min 0,0 km/h (0 Bft)
22.06.2009 04:56 18,5 C 8,3 C 0,0 UV-I 0,0 C 54 % 90 % 0 % 1023,6 hPa 0,0 l/m 0,0 km/h (0 Bft) 0 min 0,0 km/h (0 Bft)
22.06.2009 04:58 18,5 C 8,3 C 0,0 UV-I 0,0 C 54 % 90 % 0 % 1023,8 hPa 0,0 l/m 0,0 km/h (0 Bft) 0 min 0,0 km/h (0 Bft)
22.06.2009 05:00 18,5 C 8,3 C 0,0 UV-I 0,0 C 54 % 90 % 0 % 1023,8 hPa 0,0 l/m 0,0 km/h (0 Bft) 0 min 0,0 km/h (0 Bft)
22.06.2009 05:02 18,5 C 8,3 C 0,0 UV-I 0,0 C 54 % 90 % 0 % 1023,8 hPa 0,0 l/m 0,0 km/h (0 Bft) 0 min 0,0 km/h (0 Bft)
22.06.2009 05:04 18,4 C 8,2 C 0,0 UV-I 0,0 C 54 % 90 % 0 % 1023,8 hPa 0,0 l/m 0,0 km/h (0 Bft) 0 min 0,0 km/h (0 Bft)
22.06.2009 05:06 18,4 C 8,3 C 0,0 UV-I 0,0 C 54 % 89 % 0 % 1023,8 hPa 0,0 l/m 0,0 km/h (0 Bft) 0 min 0,0 km/h (0 Bft)
22.06.2009 05:08 18,4 C 8,3 C 0,0 UV-I 0,0 C 54 % 89 % 0 % 1023,8 hPa 0,0 l/m 0,0 km/h (0 Bft) 0 min 0,0 km/h (0 Bft)
22.06.2009 05:10 18,4 C 8,3 C 0,0 UV-I 0,0 C 54 % 89 % 0 % 1023,8 hPa 0,0 l/m 0,0 km/h (0 Bft) 0 min 0,0 km/h (0 Bft)
22.06.2009 05:12 18,4 C 8,1 C 0,0 UV-I 0,0 C 54 % 89 % 0 % 1023,8 hPa 0,0 l/m 0,0 km/h (0 Bft) 0 min 0,0 km/h (0 Bft)
22.06.2009 05:14 18,4 C 8,1 C 0,0 UV-I 0,0 C 54 % 89 % 0 % 1023,8 hPa 0,0 l/m 0,0 km/h (0 Bft) 0 min 0,0 km/h (0 Bft)
22.06.2009 05:16 18,4 C 8,1 C 0,0 UV-I 0,0 C 54 % 90 % 0 % 1023,8 hPa 0,0 l/m 0,0 km/h (0 Bft) 0 min 0,0 km/h (0 Bft)
22.06.2009 05:18 18,4 C 8,1 C 0,0 UV-I 0,0 C 53 % 90 % 0 % 1023,6 hPa 0,0 l/m 0,0 km/h (0 Bft) 0 min 0,0 km/h (0 Bft)
22.06.2009 05:20 18,4 C 8,1 C 0,0 UV-I 0,0 C 53 % 90 % 0 % 1023,6 hPa 0,0 l/m 0,0 km/h (0 Bft) 0 min 0,0 km/h (0 Bft)
22.06.2009 05:22 18,4 C 8,1 C 0,0 UV-I 0,0 C 53 % 90 % 0 % 1023,6 hPa 0,0 l/m 0,0 km/h (0 Bft) 0 min 0,0 km/h (0 Bft)
22.06.2009 05:24 18,4 C 8,1 C 0,0 UV-I 0,0 C 54 % 90 % 0 % 1023,6 hPa 0,0 l/m 0,0 km/h (0 Bft) 0 min 0,0 km/h (0 Bft)
22.06.2009 05:26 18,4 C 8,1 C 0,0 UV-I 0,0 C 53 % 90 % 0 % 1023,6 hPa 0,0 l/m 0,0 km/h (0 Bft) 0 min 0,0 km/h (0 Bft)
22.06.2009 05:28 18,4 C 8,1 C 0,0 UV-I 0,0 C 54 % 90 % 0 % 1023,6 hPa 0,0 l/m 0,0 km/h (0 Bft) 0 min 0,0 km/h (0 Bft)
22.06.2009 05:30 18,4 C 8,1 C 0,0 UV-I 0,0 C 53 % 90 % 0 % 1023,6 hPa 0,0 l/m 0,0 km/h (0 Bft) 0 min 0,0 km/h (0 Bft)
22.06.2009 05:32 18,4 C 8,0 C 0,0 UV-I 0,0 C 53 % 90 % 0 % 1023,6 hPa 0,0 l/m 0,0 km/h (0 Bft) 0 min 0,0 km/h (0 Bft)
22.06.2009 05:34 18,4 C 8,1 C 0,0 UV-I 0,0 C 53 % 90 % 0 % 1023,6 hPa 0,0 l/m 0,0 km/h (0 Bft) 0 min 0,0 km/h (0 Bft)
22.06.2009 05:36 18,4 C 8,0 C 0,0 UV-I 0,0 C 54 % 90 % 0 % 1023,6 hPa 0,0 l/m 0,0 km/h (0 Bft) 0 min 0,0 km/h (0 Bft)
22.06.2009 05:38 18,2 C 8,1 C 0,0 UV-I 0,0 C 54 % 91 % 0 % 1024,0 hPa 0,0 l/m 0,0 km/h (0 Bft) 0 min 0,0 km/h (0 Bft)
22.06.2009 05:40 18,2 C 8,0 C 0,0 UV-I 0,0 C 54 % 91 % 0 % 1024,0 hPa 0,0 l/m 0,0 km/h (0 Bft) 0 min 0,0 km/h (0 Bft)
22.06.2009 05:42 18,2 C 8,1 C 0,0 UV-I 0,0 C 54 % 91 % 0 % 1024,0 hPa 0,0 l/m 0,0 km/h (0 Bft) 0 min 0,0 km/h (0 Bft)
22.06.2009 05:44 18,2 C 8,1 C 0,0 UV-I 0,0 C 54 % 91 % 0 % 1024,0 hPa 0,0 l/m 0,0 km/h (0 Bft) 0 min 0,0 km/h (0 Bft)
22.06.2009 05:46 18,4 C 8,3 C 0,0 UV-I 0,0 C 54 % 91 % 0 % 1024,0 hPa 0,0 l/m 0,0 km/h (0 Bft) 0 min 0,0 km/h (0 Bft)
22.06.2009 05:48 18,3 C 8,1 C 0,0 UV-I 0,0 C 54 % 91 % 0 % 1024,0 hPa 0,0 l/m 0,0 km/h (0 Bft) 0 min 0,0 km/h (0 Bft)
22.06.2009 05:50 18,3 C 8,3 C 0,0 UV-I 0,0 C 54 % 91 % 0 % 1024,0 hPa 0,0 l/m 0,0 km/h (0 Bft) 0 min 0,0 km/h (0 Bft)
22.06.2009 05:52 18,2 C 8,3 C 0,1 UV-I 0,0 C 54 % 91 % 0 % 1024,0 hPa 0,0 l/m 0,0 km/h (0 Bft) 0 min 0,0 km/h (0 Bft)
22.06.2009 05:54 18,3 C 8,3 C 0,1 UV-I 0,0 C 54 % 91 % 0 % 1024,0 hPa 0,0 l/m 0,0 km/h (0 Bft) 0 min 0,0 km/h (0 Bft)
22.06.2009 05:56 18,2 C 8,2 C 0,1 UV-I 0,1 C 54 % 91 % 3 % 1024,0 hPa 0,0 l/m 0,0 km/h (0 Bft) 0 min 0,0 km/h (0 Bft)
22.06.2009 05:58 18,3 C 8,3 C 0,2 UV-I 0,1 C 54 % 91 % 3 % 1024,2 hPa 0,0 l/m 0,0 km/h (0 Bft) 0 min 0,0 km/h (0 Bft)
22.06.2009 06:00 18,3 C 8,4 C 0,2 UV-I 0,0 C 54 % 91 % 0 % 1024,2 hPa 0,0 l/m 0,0 km/h (0 Bft) 0 min 0,0 km/h (0 Bft)
22.06.2009 06:02 18,3 C 8,4 C 0,2 UV-I 0,0 C 54 % 92 % 0 % 1024,2 hPa 0,0 l/m 0,0 km/h (0 Bft) 0 min 0,0 km/h (0 Bft)
22.06.2009 06:04 18,3 C 8,4 C 0,2 UV-I 0,1 C 54 % 92 % 3 % 1024,2 hPa 0,0 l/m 0,0 km/h (0 Bft) 0 min 0,0 km/h (0 Bft)
22.06.2009 06:06 18,3 C 8,4 C 0,2 UV-I 0,1 C 54 % 91 % 3 % 1024,2 hPa 0,0 l/m 0,0 km/h (0 Bft) 0 min 0,0 km/h (0 Bft)
22.06.2009 06:08 18,2 C 8,4 C 0,2 UV-I 0,2 C 54 % 91 % 6 % 1024,2 hPa 0,0 l/m 0,0 km/h (0 Bft) 0 min 0,0 km/h (0 Bft)
22.06.2009 06:10 18,3 C 8,4 C 0,2 UV-I 0,2 C 55 % 92 % 6 % 1024,2 hPa 0,0 l/m 0,0 km/h (0 Bft) 0 min 0,0 km/h (0 Bft)
22.06.2009 06:12 18,2 C 8,6 C 0,2 UV-I 0,0 C 55 % 92 % 0 % 1024,2 hPa 0,0 l/m 0,0 km/h (0 Bft) 0 min 0,0 km/h (0 Bft)
22.06.2009 06:14 18,3 C 8,5 C 0,2 UV-I 0,2 C 54 % 92 % 6 % 1024,2 hPa 0,0 l/m 0,0 km/h (0 Bft) 0 min 0,0 km/h (0 Bft)
22.06.2009 06:16 18,3 C 8,6 C 0,2 UV-I 0,1 C 55 % 92 % 3 % 1024,2 hPa 0,0 l/m 0,0 km/h (0 Bft) 0 min 0,0 km/h (0 Bft)
22.06.2009 06:18 18,3 C 8,6 C 0,2 UV-I 0,1 C 55 % 92 % 3 % 1024,3 hPa 0,0 l/m 0,0 km/h (0 Bft) 0 min 0,0 km/h (0 Bft)
22.06.2009 06:20 18,3 C 8,7 C 0,2 UV-I 0,0 C 55 % 92 % 0 % 1024,3 hPa 0,0 l/m 0,0 km/h (0 Bft) 0 min 0,0 km/h (0 Bft)
22.06.2009 06:22 18,3 C 8,7 C 0,2 UV-I 0,0 C 55 % 92 % 0 % 1024,3 hPa 0,0 l/m 0,0 km/h (0 Bft) 0 min 0,0 km/h (0 Bft)
22.06.2009 06:24 18,3 C 8,7 C 0,2 UV-I 0,1 C 55 % 92 % 3 % 1024,3 hPa 0,0 l/m 0,0 km/h (0 Bft) 0 min 0,0 km/h (0 Bft)
22.06.2009 06:26 18,3 C 8,8 C 0,2 UV-I 0,0 C 55 % 92 % 0 % 1024,3 hPa 0,0 l/m 0,0 km/h (0 Bft) 0 min 0,0 km/h (0 Bft)
22.06.2009 06:28 18,3 C 8,8 C 0,3 UV-I 0,1 C 55 % 92 % 3 % 1024,3 hPa 0,0 l/m 0,0 km/h (0 Bft) 0 min 0,0 km/h (0 Bft)
22.06.2009 06:30 18,3 C 8,8 C 0,3 UV-I 0,1 C 55 % 92 % 3 % 1024,3 hPa 0,0 l/m 0,0 km/h (0 Bft) 0 min 0,0 km/h (0 Bft)
22.06.2009 06:32 18,3 C 8,8 C 0,3 UV-I 0,1 C 55 % 92 % 3 % 1024,3 hPa 0,0 l/m 0,0 km/h (0 Bft) 0 min 0,0 km/h (0 Bft)
22.06.2009 06:34 18,3 C 8,8 C 0,3 UV-I 0,1 C 55 % 92 % 3 % 1024,3 hPa 0,0 l/m 0,0 km/h (0 Bft) 0 min 0,0 km/h (0 Bft)
22.06.2009 06:36 18,3 C 8,8 C 0,3 UV-I 0,2 C 55 % 92 % 6 % 1024,3 hPa 0,0 l/m 0,0 km/h (0 Bft) 0 min 0,0 km/h (0 Bft)
22.06.2009 06:38 18,3 C 8,9 C 0,5 UV-I 0,1 C 55 % 92 % 3 % 1024,2 hPa 0,0 l/m 0,0 km/h (0 Bft) 0 min 0,0 km/h (0 Bft)
22.06.2009 06:40 18,3 C 8,9 C 0,5 UV-I 0,2 C 55 % 92 % 6 % 1024,2 hPa 0,0 l/m 0,0 km/h (0 Bft) 0 min 0,0 km/h (0 Bft)
22.06.2009 06:42 18,3 C 8,9 C 0,5 UV-I 0,2 C 55 % 92 % 6 % 1024,2 hPa 0,0 l/m 0,0 km/h (0 Bft) 0 min 0,0 km/h (0 Bft)
22.06.2009 06:44 18,3 C 8,9 C 0,5 UV-I 0,2 C 55 % 92 % 6 % 1024,2 hPa 0,0 l/m 0,0 km/h (0 Bft) 0 min 0,0 km/h (0 Bft)
22.06.2009 06:46 18,3 C 9,1 C 0,5 UV-I 0,1 C 55 % 92 % 3 % 1024,2 hPa 0,0 l/m 0,0 km/h (0 Bft) 0 min 0,0 km/h (0 Bft)
22.06.2009 06:48 18,3 C 9,1 C 0,5 UV-I 0,1 C 55 % 92 % 3 % 1024,2 hPa 0,0 l/m 0,0 km/h (0 Bft) 0 min 0,0 km/h (0 Bft)
22.06.2009 06:50 18,3 C 9,1 C 0,5 UV-I 0,2 C 55 % 92 % 6 % 1024,2 hPa 0,0 l/m 0,0 km/h (0 Bft) 0 min 0,0 km/h (0 Bft)
22.06.2009 06:52 18,3 C 9,2 C 0,5 UV-I 0,1 C 55 % 92 % 3 % 1024,2 hPa 0,0 l/m 0,0 km/h (0 Bft) 0 min 0,0 km/h (0 Bft)
22.06.2009 06:54 18,3 C 9,2 C 0,5 UV-I 0,2 C 55 % 92 % 6 % 1024,2 hPa 0,0 l/m 0,0 km/h (0 Bft) 0 min 0,0 km/h (0 Bft)
22.06.2009 06:56 18,2 C 9,2 C 0,5 UV-I 0,3 C 55 % 92 % 9 % 1024,2 hPa 0,0 l/m 0,0 km/h (0 Bft) 0 min 0,0 km/h (0 Bft)
22.06.2009 06:58 18,3 C 9,2 C 0,6 UV-I 0,3 C 55 % 92 % 9 % 1024,4 hPa 0,0 l/m 0,0 km/h (0 Bft) 0 min 0,0 km/h (0 Bft)
22.06.2009 07:00 18,2 C 9,2 C 0,6 UV-I 0,3 C 55 % 92 % 9 % 1024,4 hPa 0,0 l/m 0,0 km/h (0 Bft) 0 min 0,0 km/h (0 Bft)
22.06.2009 07:02 18,3 C 9,3 C 0,6 UV-I 0,2 C 55 % 92 % 6 % 1024,4 hPa 0,0 l/m 0,0 km/h (0 Bft) 0 min 0,0 km/h (0 Bft)
22.06.2009 07:04 18,2 C 9,3 C 0,6 UV-I 0,2 C 55 % 92 % 6 % 1024,4 hPa 0,0 l/m 0,0 km/h (0 Bft) 0 min 0,0 km/h (0 Bft)
22.06.2009 07:06 18,2 C 9,3 C 0,6 UV-I 0,2 C 55 % 92 % 6 % 1024,4 hPa 0,0 l/m 0,0 km/h (0 Bft) 0 min 0,0 km/h (0 Bft)
22.06.2009 07:08 18,2 C 9,5 C 0,6 UV-I 0,0 C 55 % 92 % 0 % 1024,4 hPa 0,0 l/m 0,0 km/h (0 Bft) 0 min 4,6 km/h (1 Bft)
22.06.2009 07:10 18,2 C 9,5 C 0,6 UV-I 0,1 C 55 % 92 % 3 % 1024,4 hPa 0,0 l/m 0,5 km/h (0 Bft) 0 min 0,0 km/h (0 Bft)
22.06.2009 07:12 18,2 C 9,5 C 0,8 UV-I 0,1 C 55 % 92 % 3 % 1024,4 hPa 0,0 l/m 0,5 km/h (0 Bft) 0 min 0,0 km/h (0 Bft)
22.06.2009 07:14 18,4 C 9,5 C 0,8 UV-I 0,1 C 55 % 91 % 3 % 1024,4 hPa 0,0 l/m 0,5 km/h (0 Bft) 0 min 5,1 km/h (1 Bft)
22.06.2009 07:16 18,2 C 9,5 C 0,8 UV-I 0,1 C 55 % 91 % 3 % 1024,4 hPa 0,0 l/m 0,7 km/h (0 Bft) 0 min 3,8 km/h (1 Bft)
22.06.2009 07:18 18,4 C 9,6 C 0,9 UV-I 0,0 C 55 % 91 % 0 % 1024,9 hPa 0,0 l/m 1,0 km/h (0 Bft) 0 min 0,0 km/h (0 Bft)
22.06.2009 07:20 18,4 C 9,6 C 0,9 UV-I 0,1 C 55 % 91 % 3 % 1024,9 hPa 0,0 l/m 0,5 km/h (0 Bft) 0 min 0,0 km/h (0 Bft)
22.06.2009 07:22 18,4 C 9,6 C 1,0 UV-I 0,1 C 55 % 91 % 3 % 1024,9 hPa 0,0 l/m 0,5 km/h (0 Bft) 0 min 0,0 km/h (0 Bft)
22.06.2009 07:24 18,4 C 9,7 C 1,0 UV-I 0,0 C 55 % 91 % 0 % 1024,9 hPa 0,0 l/m 0,7 km/h (0 Bft) 0 min 0,0 km/h (0 Bft)
22.06.2009 07:26 18,4 C 9,7 C 1,0 UV-I 0,1 C 55 % 91 % 3 % 1024,9 hPa 0,0 l/m 0,7 km/h (0 Bft) 0 min 0,0 km/h (0 Bft)
22.06.2009 07:28 18,4 C 9,7 C 1,0 UV-I 0,1 C 55 % 91 % 3 % 1024,9 hPa 0,0 l/m 0,5 km/h (0 Bft) 0 min 0,0 km/h (0 Bft)
22.06.2009 07:30 18,4 C 9,9 C 1,0 UV-I 0,0 C 55 % 91 % 0 % 1024,9 hPa 0,0 l/m 1,0 km/h (0 Bft) 0 min 2,9 km/h (1 Bft)
22.06.2009 07:32 18,4 C 9,9 C 1,1 UV-I 0,0 C 55 % 90 % 0 % 1024,9 hPa 0,0 l/m 1,4 km/h (1 Bft) 0 min 4,3 km/h (1 Bft)
22.06.2009 07:34 18,4 C 9,8 C 1,1 UV-I 0,1 C 55 % 90 % 3 % 1024,9 hPa 0,0 l/m 1,2 km/h (1 Bft) 0 min 6,5 km/h (2 Bft)
22.06.2009 07:36 18,4 C 9,9 C 1,1 UV-I 0,1 C 55 % 90 % 3 % 1024,9 hPa 0,0 l/m 1,2 km/h (1 Bft) 0 min 0,0 km/h (0 Bft)
22.06.2009 07:38 18,4 C 9,9 C 1,2 UV-I 0,1 C 55 % 90 % 3 % 1024,9 hPa 0,0 l/m 1,2 km/h (1 Bft) 0 min 0,0 km/h (0 Bft)
22.06.2009 07:40 18,4 C 10,0 C 1,2 UV-I 0,0 C 55 % 91 % 0 % 1024,9 hPa 0,0 l/m 1,0 km/h (0 Bft) 0 min 0,0 km/h (0 Bft)
22.06.2009 07:42 18,4 C 10,0 C 1,3 UV-I 0,1 C 55 % 91 % 3 % 1024,9 hPa 0,0 l/m 0,7 km/h (0 Bft) 0 min 4,1 km/h (1 Bft)
22.06.2009 07:44 18,4 C 10,0 C 1,3 UV-I 0,1 C 55 % 91 % 3 % 1024,9 hPa 0,0 l/m 1,0 km/h (0 Bft) 0 min 4,6 km/h (1 Bft)
22.06.2009 07:46 18,4 C 10,1 C 1,3 UV-I 0,0 C 55 % 91 % 0 % 1024,9 hPa 0,0 l/m 1,4 km/h (1 Bft) 0 min 4,8 km/h (1 Bft)
22.06.2009 07:48 18,4 C 10,0 C 1,2 UV-I 0,2 C 55 % 91 % 6 % 1024,9 hPa 0,0 l/m 1,7 km/h (1 Bft) 0 min 6,0 km/h (2 Bft)
22.06.2009 07:50 18,4 C 10,1 C 1,2 UV-I 0,2 C 55 % 91 % 6 % 1024,9 hPa 0,0 l/m 2,2 km/h (1 Bft) 0 min 5,8 km/h (2 Bft)
22.06.2009 07:52 18,4 C 10,3 C 1,3 UV-I 0,0 C 55 % 91 % 0 % 1024,9 hPa 0,0 l/m 2,2 km/h (1 Bft) 0 min 3,8 km/h (1 Bft)
22.06.2009 07:54 18,4 C 10,3 C 1,3 UV-I 0,1 C 55 % 91 % 3 % 1024,9 hPa 0,0 l/m 1,9 km/h (1 Bft) 0 min 0,0 km/h (0 Bft)
22.06.2009 07:56 18,4 C 10,3 C 1,3 UV-I 0,1 C 55 % 91 % 3 % 1024,9 hPa 0,0 l/m 1,4 km/h (1 Bft) 0 min 0,0 km/h (0 Bft)
22.06.2009 07:58 18,4 C 10,3 C 1,3 UV-I 0,2 C 55 % 91 % 6 % 1025,1 hPa 0,0 l/m 1,7 km/h (1 Bft) 0 min 5,5 km/h (1 Bft)
22.06.2009 08:00 18,4 C 10,5 C 1,3 UV-I 0,0 C 55 % 91 % 0 % 1025,1 hPa 0,0 l/m 1,7 km/h (1 Bft) 0 min 5,3 km/h (1 Bft)
22.06.2009 08:02 18,4 C 10,4 C 1,4 UV-I 0,2 C 55 % 90 % 6 % 1025,1 hPa 0,0 l/m 1,9 km/h (1 Bft) 0 min 2,6 km/h (1 Bft)
22.06.2009 08:04 18,4 C 10,5 C 1,4 UV-I 0,1 C 55 % 90 % 3 % 1025,1 hPa 0,0 l/m 2,4 km/h (1 Bft) 0 min 3,8 km/h (1 Bft)
22.06.2009 08:06 18,4 C 10,5 C 1,4 UV-I 0,1 C 55 % 90 % 3 % 1025,1 hPa 0,0 l/m 2,4 km/h (1 Bft) 0 min 0,0 km/h (0 Bft)
22.06.2009 08:08 18,4 C 10,7 C 1,4 UV-I 0,0 C 55 % 90 % 0 % 1025,1 hPa 0,0 l/m 2,4 km/h (1 Bft) 0 min 2,6 km/h (1 Bft)
22.06.2009 08:10 18,4 C 10,6 C 1,4 UV-I 0,2 C 56 % 90 % 6 % 1025,1 hPa 0,0 l/m 2,4 km/h (1 Bft) 0 min 7,7 km/h (2 Bft)
22.06.2009 08:12 18,4 C 10,7 C 1,4 UV-I 0,1 C 55 % 90 % 3 % 1025,1 hPa 0,0 l/m 2,4 km/h (1 Bft) 0 min 3,8 km/h (1 Bft)
22.06.2009 08:14 18,4 C 10,8 C 1,4 UV-I 0,0 C 56 % 90 % 0 % 1025,1 hPa 0,0 l/m 2,2 km/h (1 Bft) 0 min 8,4 km/h (2 Bft)
22.06.2009 08:16 18,4 C 10,8 C 1,4 UV-I 0,1 C 56 % 90 % 3 % 1025,1 hPa 0,0 l/m 1,9 km/h (1 Bft) 0 min 2,6 km/h (1 Bft)
22.06.2009 08:18 18,4 C 10,9 C 1,5 UV-I 0,1 C 56 % 90 % 3 % 1025,1 hPa 0,0 l/m 1,7 km/h (1 Bft) 0 min 0,0 km/h (0 Bft)
22.06.2009 08:20 18,4 C 10,9 C 1,5 UV-I 0,2 C 56 % 89 % 6 % 1025,1 hPa 0,0 l/m 1,4 km/h (1 Bft) 0 min 6,0 km/h (2 Bft)
22.06.2009 08:22 18,4 C 10,9 C 1,5 UV-I 0,3 C 56 % 89 % 9 % 1025,1 hPa 0,0 l/m 1,7 km/h (1 Bft) 0 min 4,6 km/h (1 Bft)
22.06.2009 08:24 18,4 C 11,1 C 1,5 UV-I 0,2 C 56 % 89 % 6 % 1025,1 hPa 0,0 l/m 1,7 km/h (1 Bft) 0 min 7,9 km/h (2 Bft)
22.06.2009 08:26 18,4 C 11,1 C 1,5 UV-I 0,3 C 56 % 89 % 9 % 1025,1 hPa 0,0 l/m 2,4 km/h (1 Bft) 0 min 3,6 km/h (1 Bft)
22.06.2009 08:28 18,4 C 11,2 C 1,5 UV-I 0,3 C 56 % 89 % 9 % 1025,1 hPa 0,0 l/m 2,6 km/h (1 Bft) 0 min 3,4 km/h (1 Bft)
22.06.2009 08:30 18,4 C 11,2 C 1,5 UV-I 0,3 C 56 % 89 % 9 % 1025,1 hPa 0,0 l/m 2,9 km/h (1 Bft) 0 min 0,0 km/h (0 Bft)
22.06.2009 08:32 18,4 C 11,3 C 1,6 UV-I 0,3 C 56 % 89 % 9 % 1025,1 hPa 0,0 l/m 2,4 km/h (1 Bft) 0 min 0,0 km/h (0 Bft)
22.06.2009 08:34 18,5 C 11,4 C 1,6 UV-I 0,2 C 56 % 89 % 6 % 1025,1 hPa 0,0 l/m 2,4 km/h (1 Bft) 0 min 6,5 km/h (2 Bft)
22.06.2009 08:36 18,5 C 11,5 C 1,6 UV-I 0,2 C 56 % 88 % 6 % 1025,1 hPa 0,0 l/m 1,9 km/h (1 Bft) 0 min 0,0 km/h (0 Bft)
22.06.2009 08:38 18,5 C 11,5 C 1,6 UV-I 0,2 C 56 % 88 % 6 % 1025,3 hPa 0,0 l/m 1,7 km/h (1 Bft) 0 min 3,8 km/h (1 Bft)
22.06.2009 08:40 18,5 C 11,6 C 1,6 UV-I 0,3 C 56 % 88 % 9 % 1025,3 hPa 0,0 l/m 1,7 km/h (1 Bft) 0 min 3,6 km/h (1 Bft)
22.06.2009 08:42 18,5 C 11,6 C 1,7 UV-I 0,5 C 56 % 88 % 14 % 1025,3 hPa 0,0 l/m 2,4 km/h (1 Bft) 0 min 4,1 km/h (1 Bft)
22.06.2009 08:44 18,5 C 11,8 C 1,7 UV-I 0,3 C 56 % 88 % 9 % 1025,3 hPa 0,0 l/m 2,4 km/h (1 Bft) 0 min 3,1 km/h (1 Bft)
22.06.2009 08:46 18,5 C 11,9 C 1,7 UV-I 0,3 C 56 % 87 % 9 % 1025,3 hPa 0,0 l/m 2,2 km/h (1 Bft) 0 min 2,6 km/h (1 Bft)
22.06.2009 08:48 18,5 C 11,9 C 1,7 UV-I 0,4 C 56 % 87 % 11 % 1025,3 hPa 0,0 l/m 2,9 km/h (1 Bft) 0 min 7,2 km/h (2 Bft)
22.06.2009 08:50 18,5 C 12,0 C 1,7 UV-I 0,4 C 56 % 87 % 11 % 1025,3 hPa 0,0 l/m 2,6 km/h (1 Bft) 0 min 0,0 km/h (0 Bft)
22.06.2009 08:52 18,5 C 12,0 C 1,7 UV-I 0,5 C 56 % 87 % 14 % 1025,3 hPa 0,0 l/m 2,2 km/h (1 Bft) 0 min 0,0 km/h (0 Bft)
22.06.2009 08:54 18,5 C 12,0 C 1,7 UV-I 0,5 C 56 % 87 % 14 % 1025,3 hPa 0,0 l/m 1,7 km/h (1 Bft) 0 min 0,0 km/h (0 Bft)
22.06.2009 08:56 18,5 C 12,1 C 1,7 UV-I 0,5 C 56 % 87 % 14 % 1025,3 hPa 0,0 l/m 1,4 km/h (1 Bft) 0 min 2,9 km/h (1 Bft)
22.06.2009 08:58 18,5 C 12,3 C 1,7 UV-I 0,4 C 56 % 86 % 11 % 1025,5 hPa 0,0 l/m 1,9 km/h (1 Bft) 0 min 5,3 km/h (1 Bft)
22.06.2009 09:00 18,5 C 12,2 C 1,7 UV-I 0,6 C 56 % 86 % 17 % 1025,5 hPa 0,0 l/m 1,7 km/h (1 Bft) 0 min 3,1 km/h (1 Bft)
22.06.2009 09:02 18,6 C 12,3 C 1,8 UV-I 0,6 C 56 % 86 % 17 % 1025,5 hPa 0,0 l/m 2,4 km/h (1 Bft) 0 min 8,9 km/h (2 Bft)
22.06.2009 09:04 18,6 C 12,4 C 1,8 UV-I 0,5 C 56 % 85 % 14 % 1025,5 hPa 0,0 l/m 2,9 km/h (1 Bft) 0 min 8,9 km/h (2 Bft)
22.06.2009 09:06 18,6 C 12,5 C 1,8 UV-I 0,5 C 56 % 85 % 14 % 1025,5 hPa 0,0 l/m 3,6 km/h (1 Bft) 0 min 10,3 km/h (2 Bft)
22.06.2009 09:08 18,6 C 12,5 C 1,9 UV-I 0,7 C 56 % 85 % 20 % 1025,5 hPa 0,0 l/m 4,1 km/h (1 Bft) 0 min 10,1 km/h (2 Bft)
22.06.2009 09:10 18,6 C 12,7 C 1,9 UV-I 0,5 C 56 % 84 % 14 % 1025,5 hPa 0,0 l/m 4,1 km/h (1 Bft) 0 min 7,7 km/h (2 Bft)
22.06.2009 09:12 18,6 C 12,7 C 2,0 UV-I 0,6 C 57 % 84 % 17 % 1025,5 hPa 0,0 l/m 4,8 km/h (1 Bft) 0 min 8,2 km/h (2 Bft)
22.06.2009 09:14 18,6 C 12,8 C 2,0 UV-I 0,6 C 56 % 83 % 17 % 1025,5 hPa 0,0 l/m 5,3 km/h (1 Bft) 0 min 13,5 km/h (3 Bft)
22.06.2009 09:16 18,6 C 12,8 C 2,0 UV-I 0,7 C 56 % 83 % 20 % 1025,5 hPa 0,0 l/m 4,6 km/h (1 Bft) 0 min 0,0 km/h (0 Bft)
22.06.2009 09:18 18,6 C 12,9 C 2,0 UV-I 0,6 C 56 % 82 % 17 % 1025,7 hPa 0,0 l/m 4,3 km/h (1 Bft) 0 min 5,3 km/h (1 Bft)
22.06.2009 09:20 18,6 C 12,9 C 2,0 UV-I 0,7 C 56 % 82 % 20 % 1025,7 hPa 0,0 l/m 3,8 km/h (1 Bft) 0 min 3,4 km/h (1 Bft)
22.06.2009 09:22 18,6 C 12,9 C 2,0 UV-I 0,7 C 56 % 82 % 20 % 1025,7 hPa 0,0 l/m 3,6 km/h (1 Bft) 0 min 2,9 km/h (1 Bft)
22.06.2009 09:24 18,6 C 13,1 C 2,0 UV-I 0,6 C 56 % 82 % 17 % 1025,7 hPa 0,0 l/m 2,9 km/h (1 Bft) 0 min 3,8 km/h (1 Bft)
22.06.2009 09:26 18,6 C 13,0 C 2,0 UV-I 0,8 C 56 % 82 % 23 % 1025,7 hPa 0,0 l/m 2,9 km/h (1 Bft) 0 min 2,9 km/h (1 Bft)
22.06.2009 09:28 18,6 C 13,0 C 2,2 UV-I 0,8 C 56 % 82 % 23 % 1025,7 hPa 0,0 l/m 3,4 km/h (1 Bft) 0 min 7,7 km/h (2 Bft)
22.06.2009 09:30 18,6 C 13,1 C 2,2 UV-I 0,9 C 56 % 80 % 26 % 1025,7 hPa 0,0 l/m 3,6 km/h (1 Bft) 0 min 4,1 km/h (1 Bft)
22.06.2009 09:32 18,6 C 13,2 C 2,3 UV-I 0,9 C 56 % 80 % 26 % 1025,7 hPa 0,0 l/m 3,8 km/h (1 Bft) 0 min 5,3 km/h (1 Bft)
22.06.2009 09:34 18,6 C 13,3 C 2,3 UV-I 0,9 C 56 % 80 % 26 % 1025,7 hPa 0,0 l/m 3,6 km/h (1 Bft) 0 min 3,1 km/h (1 Bft)
22.06.2009 09:36 18,6 C 13,5 C 2,3 UV-I 0,9 C 56 % 79 % 26 % 1025,7 hPa 0,0 l/m 4,1 km/h (1 Bft) 0 min 2,9 km/h (1 Bft)
22.06.2009 09:38 18,7 C 13,5 C 2,4 UV-I 1,1 C 56 % 80 % 31 % 1025,3 hPa 0,0 l/m 3,8 km/h (1 Bft) 0 min 7,0 km/h (2 Bft)
22.06.2009 09:40 18,7 C 13,5 C 2,4 UV-I 1,3 C 56 % 79 % 37 % 1025,3 hPa 0,0 l/m 3,1 km/h (1 Bft) 0 min 0,0 km/h (0 Bft)
22.06.2009 09:42 18,7 C 13,5 C 2,5 UV-I 1,5 C 56 % 79 % 43 % 1025,3 hPa 0,0 l/m 2,4 km/h (1 Bft) 0 min 0,0 km/h (0 Bft)
22.06.2009 09:44 18,7 C 13,7 C 2,5 UV-I 1,6 C 56 % 78 % 46 % 1025,3 hPa 0,0 l/m 2,4 km/h (1 Bft) 0 min 8,7 km/h (2 Bft)
22.06.2009 09:46 18,7 C 13,7 C 2,5 UV-I 2,0 C 56 % 79 % 57 % 1025,3 hPa 0,0 l/m 1,9 km/h (1 Bft) 0 min 2,9 km/h (1 Bft)
22.06.2009 09:48 18,7 C 13,8 C 2,6 UV-I 2,5 C 56 % 79 % 71 % 1025,3 hPa 0,0 l/m 2,2 km/h (1 Bft) 0 min 6,5 km/h (2 Bft)
22.06.2009 09:50 18,8 C 13,9 C 2,6 UV-I 2,7 C 56 % 79 % 77 % 1025,3 hPa 0,0 l/m 3,1 km/h (1 Bft) 0 min 7,9 km/h (2 Bft)
22.06.2009 09:52 18,8 C 13,9 C 3,0 UV-I 3,0 C 56 % 78 % 86 % 1025,3 hPa 0,0 l/m 3,4 km/h (1 Bft) 2 min 4,1 km/h (1 Bft)
22.06.2009 09:54 18,8 C 14,0 C 3,0 UV-I 3,5 C 56 % 79 % 100 % 1025,3 hPa 0,0 l/m 3,8 km/h (1 Bft) 2 min 3,8 km/h (1 Bft)
22.06.2009 09:56 18,8 C 14,1 C 3,0 UV-I 3,7 C 56 % 78 % 100 % 1025,3 hPa 0,0 l/m 3,4 km/h (1 Bft) 2 min 3,8 km/h (1 Bft)
22.06.2009 09:58 18,8 C 14,3 C 3,0 UV-I 3,4 C 56 % 77 % 97 % 1025,6 hPa 0,0 l/m 3,8 km/h (1 Bft) 2 min 7,7 km/h (2 Bft)
22.06.2009 10:00 18,8 C 14,1 C 3,0 UV-I 3,4 C 56 % 76 % 97 % 1025,6 hPa 0,0 l/m 3,8 km/h (1 Bft) 2 min 8,7 km/h (2 Bft)
22.06.2009 10:02 18,8 C 14,3 C 2,4 UV-I 3,0 C 56 % 76 % 86 % 1025,6 hPa 0,0 l/m 4,1 km/h (1 Bft) 2 min 8,9 km/h (2 Bft)
22.06.2009 10:04 18,8 C 14,3 C 2,4 UV-I 2,7 C 56 % 74 % 77 % 1025,6 hPa 0,0 l/m 5,1 km/h (1 Bft) 0 min 12,0 km/h (2 Bft)
22.06.2009 10:06 18,8 C 14,2 C 2,4 UV-I 2,6 C 56 % 74 % 74 % 1025,6 hPa 0,0 l/m 5,3 km/h (1 Bft) 0 min 7,7 km/h (2 Bft)
22.06.2009 10:08 18,8 C 14,1 C 2,3 UV-I 2,3 C 56 % 75 % 66 % 1025,6 hPa 0,0 l/m 5,3 km/h (1 Bft) 0 min 6,0 km/h (2 Bft)
22.06.2009 10:10 18,9 C 14,1 C 2,3 UV-I 2,2 C 55 % 75 % 63 % 1025,6 hPa 0,0 l/m 5,5 km/h (1 Bft) 0 min 9,1 km/h (2 Bft)
22.06.2009 10:12 18,9 C 14,2 C 2,1 UV-I 2,0 C 55 % 75 % 57 % 1025,6 hPa 0,0 l/m 5,1 km/h (1 Bft) 0 min 7,7 km/h (2 Bft)
22.06.2009 10:14 18,9 C 14,3 C 2,1 UV-I 1,8 C 55 % 74 % 51 % 1025,6 hPa 0,0 l/m 4,8 km/h (1 Bft) 0 min 8,7 km/h (2 Bft)
22.06.2009 10:16 18,9 C 14,3 C 2,1 UV-I 1,7 C 55 % 74 % 49 % 1025,6 hPa 0,0 l/m 4,3 km/h (1 Bft) 0 min 6,7 km/h (2 Bft)
22.06.2009 10:18 18,9 C 14,2 C 2,2 UV-I 1,7 C 55 % 74 % 49 % 1025,9 hPa 0,0 l/m 4,6 km/h (1 Bft) 0 min 8,2 km/h (2 Bft)
22.06.2009 10:20 19,0 C 14,2 C 2,2 UV-I 1,7 C 55 % 74 % 49 % 1025,9 hPa 0,0 l/m 4,1 km/h (1 Bft) 0 min 0,0 km/h (0 Bft)
22.06.2009 10:22 19,0 C 14,3 C 2,1 UV-I 1,6 C 55 % 74 % 46 % 1025,9 hPa 0,0 l/m 4,1 km/h (1 Bft) 0 min 2,6 km/h (1 Bft)
22.06.2009 10:24 19,0 C 14,3 C 2,1 UV-I 1,6 C 55 % 74 % 46 % 1025,9 hPa 0,0 l/m 4,1 km/h (1 Bft) 0 min 7,5 km/h (2 Bft)
22.06.2009 10:26 19,0 C 14,3 C 2,1 UV-I 1,5 C 55 % 74 % 43 % 1025,9 hPa 0,0 l/m 3,8 km/h (1 Bft) 0 min 4,8 km/h (1 Bft)
22.06.2009 10:28 19,0 C 14,3 C 2,0 UV-I 1,4 C 55 % 74 % 40 % 1025,9 hPa 0,0 l/m 3,6 km/h (1 Bft) 0 min 5,5 km/h (1 Bft)
22.06.2009 10:30 19,0 C 14,3 C 2,0 UV-I 1,4 C 55 % 74 % 40 % 1025,9 hPa 0,0 l/m 3,4 km/h (1 Bft) 0 min 5,5 km/h (1 Bft)
22.06.2009 10:32 19,0 C 14,5 C 1,9 UV-I 1,2 C 55 % 75 % 34 % 1025,9 hPa 0,0 l/m 3,4 km/h (1 Bft) 0 min 0,0 km/h (0 Bft)
22.06.2009 10:34 19,0 C 14,5 C 1,9 UV-I 1,2 C 55 % 74 % 34 % 1025,9 hPa 0,0 l/m 2,9 km/h (1 Bft) 0 min 3,4 km/h (1 Bft)
22.06.2009 10:36 19,0 C 14,5 C 1,9 UV-I 1,2 C 55 % 74 % 34 % 1025,9 hPa 0,0 l/m 2,6 km/h (1 Bft) 0 min 2,6 km/h (1 Bft)
22.06.2009 10:38 19,0 C 14,4 C 1,8 UV-I 1,3 C 55 % 75 % 37 % 1026,1 hPa 0,0 l/m 2,2 km/h (1 Bft) 0 min 0,0 km/h (0 Bft)
22.06.2009 10:40 19,1 C 14,5 C 1,8 UV-I 1,2 C 55 % 74 % 34 % 1026,1 hPa 0,0 l/m 1,9 km/h (1 Bft) 0 min 0,0 km/h (0 Bft)
22.06.2009 10:42 19,1 C 14,5 C 2,0 UV-I 1,3 C 55 % 74 % 37 % 1026,1 hPa 0,0 l/m 1,4 km/h (1 Bft) 0 min 2,4 km/h (1 Bft)
22.06.2009 10:44 19,1 C 14,5 C 2,0 UV-I 1,4 C 55 % 74 % 40 % 1026,1 hPa 0,0 l/m 1,7 km/h (1 Bft) 0 min 4,6 km/h (1 Bft)
22.06.2009 10:46 19,1 C 14,6 C 2,0 UV-I 1,3 C 55 % 74 % 37 % 1026,1 hPa 0,0 l/m 1,9 km/h (1 Bft) 0 min 3,8 km/h (1 Bft)
22.06.2009 10:48 19,1 C 14,7 C 2,4 UV-I 1,3 C 55 % 75 % 37 % 1026,1 hPa 0,0 l/m 1,9 km/h (1 Bft) 0 min 5,3 km/h (1 Bft)
22.06.2009 10:50 19,1 C 14,7 C 2,4 UV-I 1,4 C 55 % 75 % 40 % 1026,1 hPa 0,0 l/m 1,7 km/h (1 Bft) 0 min 0,0 km/h (0 Bft)
22.06.2009 10:54 19,2 C 14,8 C 2,7 UV-I 1,6 C 55 % 74 % 46 % 1026,1 hPa 0,0 l/m 2,2 km/h (1 Bft) 0 min 4,1 km/h (1 Bft)
22.06.2009 10:56 19,2 C 14,8 C 2,7 UV-I 1,7 C 55 % 73 % 49 % 1026,1 hPa 0,0 l/m 1,9 km/h (1 Bft) 0 min 3,6 km/h (1 Bft)
22.06.2009 10:58 19,2 C 14,8 C 3,0 UV-I 1,8 C 55 % 73 % 51 % 1025,9 hPa 0,0 l/m 1,9 km/h (1 Bft) 0 min 3,4 km/h (1 Bft)
22.06.2009 11:00 19,2 C 14,9 C 3,0 UV-I 1,9 C 55 % 73 % 54 % 1025,9 hPa 0,0 l/m 2,4 km/h (1 Bft) 0 min 3,1 km/h (1 Bft)
22.06.2009 11:02 19,2 C 15,1 C 3,5 UV-I 1,9 C 55 % 73 % 54 % 1025,9 hPa 0,0 l/m 2,6 km/h (1 Bft) 0 min 4,3 km/h (1 Bft)
22.06.2009 11:04 19,2 C 15,1 C 3,5 UV-I 2,1 C 55 % 73 % 60 % 1025,9 hPa 0,0 l/m 3,4 km/h (1 Bft) 0 min 2,6 km/h (1 Bft)
22.06.2009 11:06 19,2 C 15,1 C 3,5 UV-I 2,4 C 55 % 73 % 69 % 1025,9 hPa 0,0 l/m 3,4 km/h (1 Bft) 0 min 0,0 km/h (0 Bft)
22.06.2009 11:08 19,2 C 15,1 C 4,4 UV-I 2,6 C 54 % 72 % 74 % 1025,9 hPa 0,0 l/m 3,6 km/h (1 Bft) 0 min 8,9 km/h (2 Bft)
22.06.2009 11:10 19,3 C 15,2 C 4,4 UV-I 2,9 C 54 % 72 % 83 % 1025,9 hPa 0,0 l/m 3,8 km/h (1 Bft) 2 min 6,3 km/h (2 Bft)
22.06.2009 11:12 19,2 C 15,2 C 4,4 UV-I 3,3 C 54 % 72 % 94 % 1025,9 hPa 0,0 l/m 4,1 km/h (1 Bft) 2 min 7,9 km/h (2 Bft)
22.06.2009 11:14 19,2 C 15,3 C 4,4 UV-I 3,6 C 54 % 72 % 100 % 1025,9 hPa 0,0 l/m 4,6 km/h (1 Bft) 2 min 7,0 km/h (2 Bft)
22.06.2009 11:16 19,2 C 15,5 C 4,4 UV-I 3,7 C 54 % 72 % 100 % 1025,9 hPa 0,0 l/m 4,8 km/h (1 Bft) 2 min 3,4 km/h (1 Bft)
22.06.2009 11:18 19,4 C 15,6 C 6,8 UV-I 4,0 C 54 % 70 % 100 % 1026,1 hPa 0,0 l/m 5,1 km/h (1 Bft) 2 min 8,9 km/h (2 Bft)
22.06.2009 11:20 19,4 C 15,6 C 6,8 UV-I 4,2 C 54 % 70 % 100 % 1026,1 hPa 0,0 l/m 5,3 km/h (1 Bft) 2 min 11,8 km/h (2 Bft)
22.06.2009 11:22 19,4 C 15,7 C 6,5 UV-I 4,1 C 54 % 71 % 100 % 1026,1 hPa 0,0 l/m 4,8 km/h (1 Bft) 2 min 0,0 km/h (0 Bft)
22.06.2009 11:24 19,4 C 15,9 C 6,5 UV-I 4,1 C 54 % 71 % 100 % 1026,1 hPa 0,0 l/m 4,8 km/h (1 Bft) 2 min 9,4 km/h (2 Bft)
22.06.2009 11:26 19,4 C 15,9 C 6,5 UV-I 4,2 C 54 % 69 % 100 % 1026,1 hPa 0,0 l/m 4,6 km/h (1 Bft) 2 min 4,1 km/h (1 Bft)
22.06.2009 11:28 19,4 C 16,0 C 6,6 UV-I 4,2 C 54 % 69 % 100 % 1026,1 hPa 0,0 l/m 4,8 km/h (1 Bft) 2 min 5,8 km/h (2 Bft)
22.06.2009 11:30 19,5 C 16,0 C 6,6 UV-I 4,7 C 54 % 68 % 100 % 1026,1 hPa 0,0 l/m 4,6 km/h (1 Bft) 2 min 8,2 km/h (2 Bft)
22.06.2009 11:32 19,5 C 16,0 C 7,6 UV-I 5,0 C 54 % 68 % 100 % 1026,1 hPa 0,0 l/m 4,8 km/h (1 Bft) 2 min 5,3 km/h (1 Bft)
22.06.2009 11:34 19,5 C 16,0 C 7,6 UV-I 5,1 C 54 % 68 % 100 % 1026,1 hPa 0,0 l/m 5,3 km/h (1 Bft) 2 min 14,0 km/h (3 Bft)
22.06.2009 11:36 19,5 C 16,0 C 7,6 UV-I 4,7 C 54 % 67 % 100 % 1026,1 hPa 0,0 l/m 5,1 km/h (1 Bft) 2 min 4,1 km/h (1 Bft)
22.06.2009 11:38 19,5 C 16,1 C 4,7 UV-I 4,0 C 54 % 66 % 100 % 1026,2 hPa 0,0 l/m 5,3 km/h (1 Bft) 2 min 10,8 km/h (2 Bft)
22.06.2009 11:40 19,6 C 16,0 C 4,7 UV-I 3,7 C 54 % 66 % 100 % 1026,2 hPa 0,0 l/m 5,8 km/h (2 Bft) 2 min 7,7 km/h (2 Bft)
22.06.2009 11:42 19,6 C 16,0 C 3,7 UV-I 3,2 C 54 % 67 % 91 % 1026,2 hPa 0,0 l/m 5,3 km/h (1 Bft) 2 min 5,8 km/h (2 Bft)
22.06.2009 11:44 19,6 C 16,1 C 3,7 UV-I 2,8 C 54 % 66 % 80 % 1026,2 hPa 0,0 l/m 4,8 km/h (1 Bft) 0 min 6,5 km/h (2 Bft)
22.06.2009 11:46 19,6 C 16,1 C 3,7 UV-I 2,7 C 54 % 64 % 77 % 1026,2 hPa 0,0 l/m 4,8 km/h (1 Bft) 0 min 7,7 km/h (2 Bft)
22.06.2009 11:48 19,6 C 16,1 C 3,7 UV-I 2,6 C 53 % 64 % 74 % 1026,2 hPa 0,0 l/m 5,1 km/h (1 Bft) 0 min 11,8 km/h (2 Bft)
22.06.2009 11:50 19,6 C 16,1 C 3,7 UV-I 2,4 C 53 % 65 % 69 % 1026,2 hPa 0,0 l/m 4,6 km/h (1 Bft) 0 min 3,8 km/h (1 Bft)
22.06.2009 11:52 19,6 C 16,1 C 3,9 UV-I 2,3 C 53 % 65 % 66 % 1026,2 hPa 0,0 l/m 4,6 km/h (1 Bft) 0 min 6,5 km/h (2 Bft)
22.06.2009 11:54 19,6 C 16,1 C 3,9 UV-I 2,3 C 53 % 64 % 66 % 1026,2 hPa 0,0 l/m 4,6 km/h (1 Bft) 0 min 5,8 km/h (2 Bft)
22.06.2009 11:56 19,7 C 16,1 C 3,9 UV-I 2,2 C 53 % 64 % 63 % 1026,2 hPa 0,0 l/m 4,8 km/h (1 Bft) 0 min 6,0 km/h (2 Bft)
22.06.2009 11:58 19,7 C 16,1 C 3,5 UV-I 2,0 C 53 % 64 % 57 % 1026,2 hPa 0,0 l/m 4,3 km/h (1 Bft) 0 min 3,4 km/h (1 Bft)
22.06.2009 12:00 19,7 C 16,1 C 3,5 UV-I 1,8 C 53 % 64 % 51 % 1026,2 hPa 0,0 l/m 4,1 km/h (1 Bft) 0 min 8,2 km/h (2 Bft)
22.06.2009 12:02 19,7 C 16,1 C 4,9 UV-I 1,7 C 53 % 64 % 49 % 1026,2 hPa 0,0 l/m 3,8 km/h (1 Bft) 0 min 4,3 km/h (1 Bft)
22.06.2009 12:04 19,7 C 16,4 C 4,9 UV-I 1,5 C 53 % 65 % 43 % 1026,2 hPa 0,0 l/m 3,6 km/h (1 Bft) 0 min 2,4 km/h (1 Bft)
22.06.2009 12:06 19,7 C 16,4 C 4,9 UV-I 2,9 C 53 % 65 % 83 % 1026,2 hPa 0,0 l/m 2,6 km/h (1 Bft) 2 min 4,3 km/h (1 Bft)
22.06.2009 12:08 19,7 C 16,5 C 6,4 UV-I 3,3 C 53 % 64 % 94 % 1026,2 hPa 0,0 l/m 2,2 km/h (1 Bft) 2 min 0,0 km/h (0 Bft)
22.06.2009 12:10 19,7 C 16,5 C 6,4 UV-I 3,6 C 52 % 64 % 100 % 1026,2 hPa 0,0 l/m 2,4 km/h (1 Bft) 2 min 4,3 km/h (1 Bft)
22.06.2009 12:12 19,7 C 16,5 C 3,0 UV-I 3,4 C 52 % 63 % 97 % 1026,2 hPa 0,0 l/m 1,9 km/h (1 Bft) 2 min 4,8 km/h (1 Bft)
22.06.2009 12:14 19,8 C 16,7 C 3,0 UV-I 3,0 C 52 % 63 % 86 % 1026,2 hPa 0,0 l/m 2,4 km/h (1 Bft) 2 min 5,1 km/h (1 Bft)
22.06.2009 12:16 19,8 C 16,5 C 3,0 UV-I 2,6 C 52 % 63 % 74 % 1026,2 hPa 0,0 l/m 3,1 km/h (1 Bft) 0 min 3,1 km/h (1 Bft)
22.06.2009 12:18 19,8 C 16,4 C 1,3 UV-I 2,3 C 52 % 63 % 66 % 1026,4 hPa 0,0 l/m 3,4 km/h (1 Bft) 0 min 8,7 km/h (2 Bft)
22.06.2009 12:20 19,8 C 16,5 C 1,3 UV-I 1,6 C 52 % 63 % 46 % 1026,4 hPa 0,0 l/m 3,8 km/h (1 Bft) 0 min 13,5 km/h (3 Bft)
22.06.2009 12:22 19,8 C 16,4 C 1,7 UV-I 1,3 C 52 % 63 % 37 % 1026,4 hPa 0,0 l/m 4,6 km/h (1 Bft) 0 min 3,8 km/h (1 Bft)
22.06.2009 12:24 19,8 C 16,2 C 1,7 UV-I 1,3 C 52 % 63 % 37 % 1026,4 hPa 0,0 l/m 4,6 km/h (1 Bft) 0 min 9,6 km/h (2 Bft)
22.06.2009 12:26 19,8 C 16,3 C 1,7 UV-I 0,9 C 52 % 62 % 26 % 1026,4 hPa 0,0 l/m 4,3 km/h (1 Bft) 0 min 2,9 km/h (1 Bft)
22.06.2009 12:28 19,8 C 16,3 C 2,1 UV-I 0,6 C 52 % 62 % 17 % 1026,4 hPa 0,0 l/m 4,6 km/h (1 Bft) 0 min 4,8 km/h (1 Bft)
22.06.2009 12:30 19,8 C 16,2 C 2,1 UV-I 0,7 C 52 % 63 % 20 % 1026,4 hPa 0,0 l/m 4,6 km/h (1 Bft) 0 min 0,0 km/h (0 Bft)
22.06.2009 12:34 19,8 C 16,2 C 2,1 UV-I 0,6 C 52 % 63 % 17 % 1026,4 hPa 0,0 l/m 4,6 km/h (1 Bft) 0 min 9,1 km/h (2 Bft)
22.06.2009 12:36 19,8 C 16,1 C 2,1 UV-I 0,5 C 52 % 63 % 14 % 1026,4 hPa 0,0 l/m 5,1 km/h (1 Bft) 0 min 6,3 km/h (2 Bft)
22.06.2009 12:38 19,8 C 16,0 C 1,8 UV-I 0,5 C 52 % 62 % 14 % 1026,6 hPa 0,0 l/m 4,8 km/h (1 Bft) 0 min 3,8 km/h (1 Bft)
22.06.2009 12:40 19,8 C 16,0 C 1,8 UV-I 0,4 C 51 % 63 % 11 % 1026,6 hPa 0,0 l/m 4,8 km/h (1 Bft) 0 min 8,2 km/h (2 Bft)
22.06.2009 12:42 19,8 C 16,0 C 1,5 UV-I 0,3 C 51 % 63 % 9 % 1026,6 hPa 0,0 l/m 5,5 km/h (1 Bft) 0 min 6,5 km/h (2 Bft)
22.06.2009 12:44 19,8 C 15,8 C 1,5 UV-I 0,4 C 51 % 63 % 11 % 1026,6 hPa 0,0 l/m 5,3 km/h (1 Bft) 0 min 8,9 km/h (2 Bft)
22.06.2009 12:46 19,8 C 15,9 C 1,5 UV-I 0,2 C 51 % 64 % 6 % 1026,6 hPa 0,0 l/m 5,1 km/h (1 Bft) 0 min 6,7 km/h (2 Bft)
22.06.2009 12:48 19,8 C 15,8 C 1,3 UV-I 0,2 C 51 % 64 % 6 % 1026,6 hPa 0,0 l/m 5,1 km/h (1 Bft) 0 min 5,8 km/h (2 Bft)
22.06.2009 12:50 19,8 C 15,8 C 1,3 UV-I 0,1 C 51 % 65 % 3 % 1026,6 hPa 0,0 l/m 4,8 km/h (1 Bft) 0 min 0,0 km/h (0 Bft)
22.06.2009 12:52 19,8 C 15,8 C 1,7 UV-I 0,1 C 51 % 65 % 3 % 1026,6 hPa 0,0 l/m 4,6 km/h (1 Bft) 0 min 5,8 km/h (2 Bft)
22.06.2009 12:54 19,8 C 15,8 C 1,7 UV-I 0,2 C 51 % 64 % 6 % 1026,6 hPa 0,0 l/m 3,8 km/h (1 Bft) 0 min 3,4 km/h (1 Bft)
22.06.2009 12:56 19,9 C 15,8 C 1,7 UV-I 0,3 C 51 % 64 % 9 % 1026,6 hPa 0,0 l/m 3,8 km/h (1 Bft) 0 min 10,3 km/h (2 Bft)
22.06.2009 12:58 19,8 C 15,8 C 2,2 UV-I 0,3 C 51 % 64 % 9 % 1026,8 hPa 0,0 l/m 3,8 km/h (1 Bft) 0 min 5,5 km/h (1 Bft)
22.06.2009 13:00 19,8 C 15,9 C 2,2 UV-I 0,3 C 51 % 64 % 9 % 1026,8 hPa 0,0 l/m 4,1 km/h (1 Bft) 0 min 7,7 km/h (2 Bft)
22.06.2009 13:02 19,8 C 15,9 C 2,9 UV-I 0,4 C 51 % 64 % 11 % 1026,8 hPa 0,0 l/m 4,6 km/h (1 Bft) 0 min 6,7 km/h (2 Bft)
22.06.2009 13:04 19,8 C 16,0 C 2,9 UV-I 0,4 C 51 % 64 % 11 % 1026,8 hPa 0,0 l/m 4,6 km/h (1 Bft) 0 min 4,8 km/h (1 Bft)
22.06.2009 13:06 19,8 C 16,0 C 2,9 UV-I 0,7 C 51 % 65 % 20 % 1026,8 hPa 0,0 l/m 5,3 km/h (1 Bft) 0 min 5,1 km/h (1 Bft)
22.06.2009 13:08 19,8 C 16,0 C 3,7 UV-I 0,9 C 51 % 65 % 26 % 1026,8 hPa 0,0 l/m 4,6 km/h (1 Bft) 0 min 6,3 km/h (2 Bft)
22.06.2009 13:10 19,8 C 16,0 C 3,7 UV-I 1,2 C 51 % 64 % 34 % 1026,8 hPa 0,0 l/m 4,3 km/h (1 Bft) 0 min 3,1 km/h (1 Bft)
22.06.2009 13:12 19,8 C 16,1 C 4,2 UV-I 1,4 C 51 % 65 % 40 % 1026,8 hPa 0,0 l/m 3,8 km/h (1 Bft) 0 min 6,7 km/h (2 Bft)
22.06.2009 13:14 19,8 C 16,1 C 4,2 UV-I 1,6 C 51 % 65 % 46 % 1026,8 hPa 0,0 l/m 3,6 km/h (1 Bft) 0 min 7,0 km/h (2 Bft)
22.06.2009 13:16 19,8 C 16,2 C 4,2 UV-I 1,7 C 51 % 65 % 49 % 1026,8 hPa 0,0 l/m 2,6 km/h (1 Bft) 0 min 0,0 km/h (0 Bft)
22.06.2009 13:20 19,8 C 16,3 C 4,0 UV-I 2,1 C 51 % 65 % 60 % 1026,7 hPa 0,0 l/m 1,9 km/h (1 Bft) 0 min 3,4 km/h (1 Bft)
22.06.2009 13:22 19,8 C 16,4 C 3,4 UV-I 2,1 C 51 % 64 % 60 % 1026,7 hPa 0,0 l/m 2,4 km/h (1 Bft) 0 min 5,3 km/h (1 Bft)
22.06.2009 13:24 19,8 C 16,5 C 3,4 UV-I 2,0 C 51 % 62 % 57 % 1026,7 hPa 0,0 l/m 2,4 km/h (1 Bft) 0 min 5,8 km/h (2 Bft)
22.06.2009 13:26 19,8 C 16,5 C 3,4 UV-I 1,9 C 51 % 61 % 54 % 1026,7 hPa 0,0 l/m 2,4 km/h (1 Bft) 0 min 0,0 km/h (0 Bft)
22.06.2009 13:28 19,8 C 16,4 C 3,1 UV-I 2,0 C 51 % 62 % 57 % 1026,7 hPa 0,0 l/m 2,6 km/h (1 Bft) 0 min 2,4 km/h (1 Bft)
22.06.2009 13:30 19,8 C 16,5 C 3,1 UV-I 1,9 C 51 % 61 % 54 % 1026,7 hPa 0,0 l/m 2,6 km/h (1 Bft) 0 min 3,4 km/h (1 Bft)
22.06.2009 13:32 19,8 C 16,5 C 2,9 UV-I 1,9 C 51 % 61 % 54 % 1026,7 hPa 0,0 l/m 1,9 km/h (1 Bft) 0 min 2,6 km/h (1 Bft)
22.06.2009 13:34 19,8 C 16,5 C 2,9 UV-I 1,9 C 50 % 62 % 54 % 1026,7 hPa 0,0 l/m 1,7 km/h (1 Bft) 0 min 6,7 km/h (2 Bft)
22.06.2009 13:36 19,8 C 16,5 C 2,9 UV-I 2,0 C 50 % 61 % 57 % 1026,7 hPa 0,0 l/m 1,9 km/h (1 Bft) 0 min 12,0 km/h (2 Bft)
22.06.2009 13:38 19,8 C 16,5 C 3,2 UV-I 1,9 C 50 % 61 % 54 % 1026,9 hPa 0,0 l/m 2,9 km/h (1 Bft) 0 min 3,6 km/h (1 Bft)
22.06.2009 13:40 19,9 C 16,5 C 3,2 UV-I 1,8 C 50 % 60 % 51 % 1026,9 hPa 0,0 l/m 3,1 km/h (1 Bft) 0 min 7,0 km/h (2 Bft)
22.06.2009 13:42 19,9 C 16,5 C 3,5 UV-I 1,9 C 50 % 60 % 54 % 1026,9 hPa 0,0 l/m 3,4 km/h (1 Bft) 0 min 5,3 km/h (1 Bft)
22.06.2009 13:44 19,9 C 16,7 C 3,5 UV-I 1,7 C 50 % 62 % 49 % 1026,9 hPa 0,0 l/m 3,4 km/h (1 Bft) 0 min 0,0 km/h (0 Bft)
22.06.2009 13:46 19,9 C 16,6 C 3,5 UV-I 1,9 C 50 % 61 % 54 % 1026,9 hPa 0,0 l/m 3,1 km/h (1 Bft) 0 min 4,8 km/h (1 Bft)
22.06.2009 13:48 19,9 C 16,7 C 3,3 UV-I 1,9 C 50 % 61 % 54 % 1026,9 hPa 0,0 l/m 2,4 km/h (1 Bft) 0 min 2,6 km/h (1 Bft)
22.06.2009 13:50 19,9 C 16,7 C 3,3 UV-I 2,0 C 50 % 62 % 57 % 1026,9 hPa 0,0 l/m 2,6 km/h (1 Bft) 0 min 3,4 km/h (1 Bft)
22.06.2009 13:52 19,9 C 16,7 C 3,3 UV-I 1,9 C 50 % 62 % 54 % 1026,9 hPa 0,0 l/m 2,2 km/h (1 Bft) 0 min 0,0 km/h (0 Bft)
22.06.2009 13:54 19,9 C 16,8 C 3,3 UV-I 1,8 C 50 % 62 % 51 % 1026,9 hPa 0,0 l/m 1,7 km/h (1 Bft) 0 min 0,0 km/h (0 Bft)
22.06.2009 13:56 19,9 C 16,8 C 3,3 UV-I 2,0 C 50 % 61 % 57 % 1026,9 hPa 0,0 l/m 2,2 km/h (1 Bft) 0 min 9,1 km/h (2 Bft)
22.06.2009 13:58 19,9 C 16,8 C 3,4 UV-I 2,0 C 50 % 61 % 57 % 1026,9 hPa 0,0 l/m 2,2 km/h (1 Bft) 0 min 0,0 km/h (0 Bft)
22.06.2009 14:00 19,9 C 16,8 C 3,4 UV-I 2,0 C 50 % 60 % 57 % 1026,9 hPa 0,0 l/m 1,7 km/h (1 Bft) 0 min 0,0 km/h (0 Bft)
22.06.2009 14:02 19,9 C 16,8 C 3,2 UV-I 2,0 C 50 % 60 % 57 % 1026,9 hPa 0,0 l/m 1,7 km/h (1 Bft) 0 min 0,0 km/h (0 Bft)
22.06.2009 14:04 20,0 C 16,9 C 3,2 UV-I 1,9 C 50 % 61 % 54 % 1026,9 hPa 0,0 l/m 2,2 km/h (1 Bft) 0 min 5,1 km/h (1 Bft)
22.06.2009 14:06 20,0 C 16,9 C 3,2 UV-I 1,9 C 50 % 61 % 54 % 1026,9 hPa 0,0 l/m 1,9 km/h (1 Bft) 0 min 0,0 km/h (0 Bft)
22.06.2009 14:08 20,0 C 16,9 C 3,1 UV-I 1,9 C 50 % 62 % 54 % 1026,9 hPa 0,0 l/m 1,2 km/h (1 Bft) 0 min 0,0 km/h (0 Bft)
22.06.2009 14:10 20,0 C 17,0 C 3,1 UV-I 1,8 C 50 % 60 % 51 % 1026,9 hPa 0,0 l/m 1,0 km/h (0 Bft) 0 min 0,0 km/h (0 Bft)
22.06.2009 14:12 20,0 C 17,0 C 3,3 UV-I 2,0 C 50 % 60 % 57 % 1026,9 hPa 0,0 l/m 1,0 km/h (0 Bft) 0 min 4,1 km/h (1 Bft)
22.06.2009 14:14 20,0 C 17,0 C 3,3 UV-I 2,0 C 50 % 60 % 57 % 1026,9 hPa 0,0 l/m 1,0 km/h (0 Bft) 0 min 0,0 km/h (0 Bft)
22.06.2009 14:16 20,0 C 17,1 C 3,3 UV-I 2,0 C 50 % 60 % 57 % 1026,9 hPa 0,0 l/m 0,7 km/h (0 Bft) 0 min 0,0 km/h (0 Bft)
22.06.2009 14:18 20,0 C 17,1 C 3,5 UV-I 2,1 C 50 % 60 % 60 % 1026,8 hPa 0,0 l/m 1,2 km/h (1 Bft) 0 min 7,2 km/h (2 Bft)
22.06.2009 14:20 20,0 C 17,1 C 3,5 UV-I 2,1 C 50 % 60 % 60 % 1026,8 hPa 0,0 l/m 1,7 km/h (1 Bft) 0 min 3,6 km/h (1 Bft)
22.06.2009 14:22 20,0 C 17,1 C 3,6 UV-I 2,1 C 50 % 60 % 60 % 1026,8 hPa 0,0 l/m 1,9 km/h (1 Bft) 0 min 2,6 km/h (1 Bft)
22.06.2009 14:24 20,0 C 17,2 C 3,6 UV-I 2,1 C 50 % 60 % 60 % 1026,8 hPa 0,0 l/m 1,9 km/h (1 Bft) 0 min 9,6 km/h (2 Bft)
22.06.2009 14:26 20,0 C 17,3 C 3,6 UV-I 2,1 C 50 % 60 % 60 % 1026,8 hPa 0,0 l/m 2,4 km/h (1 Bft) 0 min 0,0 km/h (0 Bft)
22.06.2009 14:28 20,0 C 17,3 C 3,6 UV-I 2,1 C 50 % 59 % 60 % 1026,8 hPa 0,0 l/m 2,6 km/h (1 Bft) 0 min 2,6 km/h (1 Bft)
22.06.2009 14:30 20,0 C 17,3 C 3,6 UV-I 2,1 C 50 % 59 % 60 % 1026,8 hPa 0,0 l/m 2,6 km/h (1 Bft) 0 min 4,6 km/h (1 Bft)
22.06.2009 14:32 20,0 C 17,3 C 3,6 UV-I 2,2 C 50 % 59 % 63 % 1026,8 hPa 0,0 l/m 2,4 km/h (1 Bft) 0 min 6,5 km/h (2 Bft)
22.06.2009 14:34 20,1 C 17,3 C 3,6 UV-I 2,2 C 50 % 58 % 63 % 1026,8 hPa 0,0 l/m 3,1 km/h (1 Bft) 0 min 7,2 km/h (2 Bft)
22.06.2009 14:36 20,1 C 17,3 C 3,6 UV-I 2,2 C 50 % 58 % 63 % 1026,8 hPa 0,0 l/m 2,9 km/h (1 Bft) 0 min 5,8 km/h (2 Bft)
22.06.2009 14:38 20,1 C 17,4 C 4,1 UV-I 2,2 C 50 % 56 % 63 % 1026,6 hPa 0,0 l/m 2,6 km/h (1 Bft) 0 min 0,0 km/h (0 Bft)
22.06.2009 14:40 20,1 C 17,5 C 4,1 UV-I 2,2 C 50 % 56 % 63 % 1026,6 hPa 0,0 l/m 2,9 km/h (1 Bft) 0 min 7,0 km/h (2 Bft)
22.06.2009 14:42 20,1 C 17,6 C 4,4 UV-I 2,3 C 50 % 56 % 66 % 1026,6 hPa 0,0 l/m 3,1 km/h (1 Bft) 0 min 6,5 km/h (2 Bft)
22.06.2009 14:44 20,1 C 17,6 C 4,4 UV-I 2,5 C 50 % 55 % 71 % 1026,6 hPa 0,0 l/m 3,6 km/h (1 Bft) 0 min 6,0 km/h (2 Bft)
22.06.2009 14:46 20,1 C 17,6 C 4,4 UV-I 2,6 C 50 % 56 % 74 % 1026,6 hPa 0,0 l/m 3,4 km/h (1 Bft) 0 min 3,6 km/h (1 Bft)
22.06.2009 14:48 20,1 C 17,7 C 5,4 UV-I 2,7 C 50 % 57 % 77 % 1026,6 hPa 0,0 l/m 3,8 km/h (1 Bft) 0 min 5,5 km/h (1 Bft)
22.06.2009 14:50 20,1 C 17,7 C 5,4 UV-I 3,0 C 50 % 57 % 86 % 1026,6 hPa 0,0 l/m 3,8 km/h (1 Bft) 2 min 2,4 km/h (1 Bft)
22.06.2009 14:52 20,2 C 17,8 C 5,5 UV-I 3,2 C 50 % 56 % 91 % 1026,6 hPa 0,0 l/m 3,8 km/h (1 Bft) 2 min 8,2 km/h (2 Bft)
22.06.2009 14:54 20,2 C 17,9 C 5,5 UV-I 3,4 C 49 % 57 % 97 % 1026,6 hPa 0,0 l/m 3,6 km/h (1 Bft) 2 min 5,3 km/h (1 Bft)
22.06.2009 14:56 20,2 C 18,1 C 5,5 UV-I 3,4 C 50 % 58 % 97 % 1026,6 hPa 0,0 l/m 2,9 km/h (1 Bft) 2 min 0,0 km/h (0 Bft)
22.06.2009 14:58 20,2 C 18,1 C 7,2 UV-I 3,9 C 49 % 58 % 100 % 1026,6 hPa 0,0 l/m 2,6 km/h (1 Bft) 2 min 0,0 km/h (0 Bft)
22.06.2009 15:00 20,2 C 18,5 C 7,2 UV-I 4,6 C 50 % 54 % 100 % 1026,6 hPa 0,0 l/m 3,4 km/h (1 Bft) 2 min 6,0 km/h (2 Bft)
22.06.2009 15:02 20,2 C 18,7 C 8,3 UV-I 5,4 C 49 % 52 % 100 % 1026,6 hPa 0,0 l/m 4,3 km/h (1 Bft) 2 min 7,7 km/h (2 Bft)
22.06.2009 15:04 20,2 C 18,7 C 8,3 UV-I 5,6 C 49 % 52 % 100 % 1026,6 hPa 0,0 l/m 3,6 km/h (1 Bft) 2 min 4,8 km/h (1 Bft)
22.06.2009 15:06 20,3 C 18,7 C 8,3 UV-I 5,5 C 49 % 52 % 100 % 1026,6 hPa 0,0 l/m 4,1 km/h (1 Bft) 2 min 5,1 km/h (1 Bft)
22.06.2009 15:08 20,2 C 18,8 C 5,6 UV-I 5,1 C 49 % 52 % 100 % 1026,6 hPa 0,0 l/m 4,3 km/h (1 Bft) 2 min 7,0 km/h (2 Bft)
22.06.2009 15:10 20,2 C 18,7 C 5,6 UV-I 4,9 C 49 % 52 % 100 % 1026,6 hPa 0,0 l/m 4,3 km/h (1 Bft) 2 min 5,1 km/h (1 Bft)
22.06.2009 15:12 20,4 C 18,7 C 5,6 UV-I 4,6 C 49 % 52 % 100 % 1026,6 hPa 0,0 l/m 4,1 km/h (1 Bft) 2 min 2,4 km/h (1 Bft)
22.06.2009 15:14 20,2 C 18,7 C 5,6 UV-I 4,3 C 48 % 51 % 100 % 1026,6 hPa 0,0 l/m 3,8 km/h (1 Bft) 2 min 5,8 km/h (2 Bft)
22.06.2009 15:18 20,4 C 18,7 C 5,3 UV-I 3,7 C 48 % 52 % 100 % 1026,9 hPa 0,0 l/m 3,8 km/h (1 Bft) 2 min 4,8 km/h (1 Bft)
22.06.2009 15:20 20,4 C 18,8 C 5,3 UV-I 3,5 C 48 % 54 % 100 % 1026,9 hPa 0,0 l/m 4,1 km/h (1 Bft) 2 min 3,8 km/h (1 Bft)
22.06.2009 15:22 20,4 C 18,9 C 5,3 UV-I 3,5 C 48 % 52 % 100 % 1026,9 hPa 0,0 l/m 3,1 km/h (1 Bft) 2 min 5,5 km/h (1 Bft)
22.06.2009 15:24 20,4 C 18,9 C 5,3 UV-I 3,6 C 48 % 52 % 100 % 1026,9 hPa 0,0 l/m 3,4 km/h (1 Bft) 2 min 6,3 km/h (2 Bft)
22.06.2009 15:26 20,5 C 18,9 C 5,3 UV-I 3,7 C 48 % 51 % 100 % 1026,9 hPa 0,0 l/m 3,1 km/h (1 Bft) 2 min 6,0 km/h (2 Bft)
22.06.2009 15:28 20,5 C 18,9 C 5,4 UV-I 3,7 C 48 % 53 % 100 % 1026,9 hPa 0,0 l/m 3,4 km/h (1 Bft) 2 min 7,2 km/h (2 Bft)
22.06.2009 15:30 20,5 C 19,0 C 5,4 UV-I 3,6 C 48 % 52 % 100 % 1026,9 hPa 0,0 l/m 3,4 km/h (1 Bft) 2 min 4,1 km/h (1 Bft)
22.06.2009 15:34 20,6 C 19,0 C 5,2 UV-I 3,5 C 48 % 51 % 100 % 1026,9 hPa 0,0 l/m 4,3 km/h (1 Bft) 2 min 11,5 km/h (2 Bft)
22.06.2009 15:36 20,6 C 18,9 C 5,2 UV-I 3,4 C 48 % 52 % 97 % 1026,9 hPa 0,0 l/m 4,8 km/h (1 Bft) 2 min 7,9 km/h (2 Bft)
22.06.2009 15:38 20,6 C 18,9 C 4,7 UV-I 3,2 C 48 % 52 % 91 % 1027,2 hPa 0,0 l/m 5,3 km/h (1 Bft) 2 min 6,3 km/h (2 Bft)
22.06.2009 15:40 20,6 C 18,9 C 4,7 UV-I 2,8 C 48 % 51 % 80 % 1027,2 hPa 0,0 l/m 4,8 km/h (1 Bft) 0 min 3,1 km/h (1 Bft)
22.06.2009 15:42 20,6 C 18,9 C 4,6 UV-I 2,7 C 48 % 53 % 77 % 1027,2 hPa 0,0 l/m 5,1 km/h (1 Bft) 0 min 6,7 km/h (2 Bft)
22.06.2009 15:44 20,7 C 19,1 C 4,6 UV-I 2,4 C 48 % 53 % 69 % 1027,2 hPa 0,0 l/m 4,3 km/h (1 Bft) 0 min 0,0 km/h (0 Bft)
22.06.2009 15:46 20,7 C 19,0 C 4,6 UV-I 2,9 C 48 % 54 % 83 % 1027,2 hPa 0,0 l/m 3,6 km/h (1 Bft) 2 min 5,3 km/h (1 Bft)
22.06.2009 15:50 20,8 C 19,1 C 5,6 UV-I 3,2 C 49 % 55 % 91 % 1027,2 hPa 0,0 l/m 2,2 km/h (1 Bft) 2 min 0,0 km/h (0 Bft)
22.06.2009 15:52 20,8 C 19,4 C 5,2 UV-I 3,2 C 49 % 53 % 91 % 1027,2 hPa 0,0 l/m 1,7 km/h (1 Bft) 2 min 2,9 km/h (1 Bft)
22.06.2009 15:54 20,8 C 19,5 C 5,2 UV-I 3,3 C 49 % 53 % 94 % 1027,2 hPa 0,0 l/m 1,2 km/h (1 Bft) 2 min 2,9 km/h (1 Bft)
22.06.2009 15:56 20,8 C 19,3 C 5,2 UV-I 3,6 C 49 % 53 % 100 % 1027,2 hPa 0,0 l/m 1,4 km/h (1 Bft) 2 min 10,3 km/h (2 Bft)
22.06.2009 15:58 20,8 C 19,4 C 4,5 UV-I 3,4 C 49 % 53 % 97 % 1026,8 hPa 0,0 l/m 1,9 km/h (1 Bft) 2 min 6,7 km/h (2 Bft)
22.06.2009 16:00 20,9 C 19,3 C 4,5 UV-I 3,2 C 48 % 53 % 91 % 1026,8 hPa 0,0 l/m 2,6 km/h (1 Bft) 2 min 5,1 km/h (1 Bft)
22.06.2009 16:02 20,9 C 19,3 C 4,1 UV-I 2,9 C 48 % 53 % 83 % 1026,8 hPa 0,0 l/m 3,4 km/h (1 Bft) 2 min 3,6 km/h (1 Bft)
22.06.2009 16:04 20,9 C 19,3 C 4,1 UV-I 2,8 C 49 % 52 % 80 % 1026,8 hPa 0,0 l/m 4,1 km/h (1 Bft) 0 min 19,0 km/h (3 Bft)
22.06.2009 16:08 20,9 C 19,3 C 4,4 UV-I 2,6 C 49 % 53 % 74 % 1026,8 hPa 0,0 l/m 4,6 km/h (1 Bft) 0 min 11,1 km/h (2 Bft)
22.06.2009 16:10 21,0 C 19,3 C 4,4 UV-I 2,6 C 48 % 52 % 74 % 1026,8 hPa 0,0 l/m 4,6 km/h (1 Bft) 0 min 6,5 km/h (2 Bft)
22.06.2009 16:12 21,0 C 19,2 C 4,1 UV-I 2,7 C 49 % 53 % 77 % 1026,8 hPa 0,0 l/m 4,1 km/h (1 Bft) 0 min 6,5 km/h (2 Bft)
22.06.2009 16:14 21,0 C 19,2 C 4,1 UV-I 2,7 C 48 % 53 % 77 % 1026,8 hPa 0,0 l/m 4,1 km/h (1 Bft) 0 min 4,6 km/h (1 Bft)
22.06.2009 16:16 21,0 C 19,3 C 4,1 UV-I 2,4 C 48 % 53 % 69 % 1026,8 hPa 0,0 l/m 4,1 km/h (1 Bft) 0 min 5,8 km/h (2 Bft)
22.06.2009 16:18 21,0 C 19,1 C 3,4 UV-I 2,4 C 48 % 53 % 69 % 1026,8 hPa 0,0 l/m 4,1 km/h (1 Bft) 0 min 6,7 km/h (2 Bft)
22.06.2009 16:20 21,0 C 19,1 C 3,4 UV-I 2,1 C 48 % 53 % 60 % 1026,8 hPa 0,0 l/m 4,3 km/h (1 Bft) 0 min 6,0 km/h (2 Bft)
22.06.2009 16:22 21,0 C 19,1 C 2,9 UV-I 1,7 C 48 % 52 % 49 % 1026,8 hPa 0,0 l/m 4,6 km/h (1 Bft) 0 min 9,1 km/h (2 Bft)
22.06.2009 16:26 21,1 C 19,1 C 2,9 UV-I 1,3 C 48 % 52 % 37 % 1026,8 hPa 0,0 l/m 4,6 km/h (1 Bft) 0 min 10,1 km/h (2 Bft)
22.06.2009 16:28 21,1 C 19,1 C 4,1 UV-I 1,5 C 48 % 52 % 43 % 1026,8 hPa 0,0 l/m 4,6 km/h (1 Bft) 0 min 6,7 km/h (2 Bft)
22.06.2009 16:30 21,1 C 19,1 C 4,1 UV-I 1,6 C 48 % 52 % 46 % 1026,8 hPa 0,0 l/m 4,6 km/h (1 Bft) 0 min 5,8 km/h (2 Bft)
22.06.2009 16:32 21,1 C 19,1 C 5,1 UV-I 1,9 C 48 % 52 % 54 % 1026,8 hPa 0,0 l/m 4,3 km/h (1 Bft) 0 min 0,0 km/h (0 Bft)
22.06.2009 16:34 21,1 C 19,1 C 5,1 UV-I 2,3 C 48 % 52 % 66 % 1026,8 hPa 0,0 l/m 3,4 km/h (1 Bft) 0 min 0,0 km/h (0 Bft)
22.06.2009 16:36 21,2 C 19,2 C 5,1 UV-I 2,5 C 48 % 53 % 71 % 1026,8 hPa 0,0 l/m 2,9 km/h (1 Bft) 0 min 4,6 km/h (1 Bft)
22.06.2009 16:38 21,2 C 19,1 C 3,7 UV-I 2,6 C 48 % 53 % 74 % 1026,8 hPa 0,0 l/m 2,9 km/h (1 Bft) 0 min 4,6 km/h (1 Bft)
22.06.2009 16:40 21,2 C 19,0 C 3,7 UV-I 2,5 C 48 % 52 % 71 % 1026,8 hPa 0,0 l/m 2,9 km/h (1 Bft) 0 min 10,6 km/h (2 Bft)
22.06.2009 16:42 21,2 C 19,0 C 2,5 UV-I 2,3 C 48 % 52 % 66 % 1026,8 hPa 0,0 l/m 3,4 km/h (1 Bft) 0 min 8,7 km/h (2 Bft)
22.06.2009 16:44 21,2 C 18,9 C 2,5 UV-I 2,0 C 48 % 53 % 57 % 1026,8 hPa 0,0 l/m 4,1 km/h (1 Bft) 0 min 6,0 km/h (2 Bft)
22.06.2009 16:46 21,2 C 18,9 C 2,5 UV-I 1,6 C 48 % 53 % 46 % 1026,8 hPa 0,0 l/m 4,8 km/h (1 Bft) 0 min 12,0 km/h (2 Bft)
22.06.2009 16:48 21,2 C 18,8 C 2,0 UV-I 1,5 C 48 % 53 % 43 % 1026,8 hPa 0,0 l/m 4,8 km/h (1 Bft) 0 min 5,5 km/h (1 Bft)
22.06.2009 16:50 21,2 C 18,8 C 2,0 UV-I 1,2 C 48 % 53 % 34 % 1026,8 hPa 0,0 l/m 4,8 km/h (1 Bft) 0 min 6,7 km/h (2 Bft)
22.06.2009 16:52 21,2 C 18,7 C 2,1 UV-I 1,1 C 48 % 53 % 31 % 1026,8 hPa 0,0 l/m 4,3 km/h (1 Bft) 0 min 5,1 km/h (1 Bft)
22.06.2009 16:56 21,2 C 18,7 C 2,1 UV-I 0,9 C 48 % 53 % 26 % 1026,8 hPa 0,0 l/m 3,8 km/h (1 Bft) 0 min 6,5 km/h (2 Bft)
22.06.2009 16:58 21,2 C 18,7 C 2,5 UV-I 0,8 C 48 % 54 % 23 % 1026,7 hPa 0,0 l/m 3,6 km/h (1 Bft) 0 min 4,6 km/h (1 Bft)
22.06.2009 17:00 21,2 C 18,8 C 2,5 UV-I 0,6 C 48 % 54 % 17 % 1026,7 hPa 0,0 l/m 3,6 km/h (1 Bft) 0 min 3,4 km/h (1 Bft)
22.06.2009 17:02 21,3 C 18,8 C 2,9 UV-I 0,7 C 48 % 54 % 20 % 1026,7 hPa 0,0 l/m 3,1 km/h (1 Bft) 0 min 4,6 km/h (1 Bft)
22.06.2009 17:04 21,2 C 18,8 C 2,9 UV-I 0,8 C 48 % 54 % 23 % 1026,7 hPa 0,0 l/m 2,9 km/h (1 Bft) 0 min 5,8 km/h (2 Bft)
22.06.2009 17:06 21,3 C 18,8 C 2,9 UV-I 1,1 C 48 % 54 % 31 % 1026,7 hPa 0,0 l/m 2,6 km/h (1 Bft) 0 min 2,6 km/h (1 Bft)
22.06.2009 17:08 21,3 C 19,1 C 3,8 UV-I 1,4 C 48 % 54 % 40 % 1026,7 hPa 0,0 l/m 2,4 km/h (1 Bft) 0 min 3,6 km/h (1 Bft)
22.06.2009 17:10 21,3 C 19,2 C 3,8 UV-I 1,6 C 48 % 53 % 46 % 1026,7 hPa 0,0 l/m 2,2 km/h (1 Bft) 0 min 2,4 km/h (1 Bft)
22.06.2009 17:12 21,3 C 19,2 C 4,2 UV-I 2,3 C 48 % 53 % 66 % 1026,7 hPa 0,0 l/m 2,2 km/h (1 Bft) 0 min 0,0 km/h (0 Bft)
22.06.2009 17:14 21,3 C 19,3 C 4,2 UV-I 3,1 C 48 % 53 % 89 % 1026,7 hPa 0,0 l/m 2,2 km/h (1 Bft) 2 min 6,0 km/h (2 Bft)
22.06.2009 17:16 21,3 C 19,4 C 4,2 UV-I 3,7 C 48 % 53 % 100 % 1026,7 hPa 0,0 l/m 2,4 km/h (1 Bft) 2 min 5,1 km/h (1 Bft)
22.06.2009 17:18 21,2 C 19,3 C 3,6 UV-I 4,0 C 48 % 52 % 100 % 1026,7 hPa 0,0 l/m 2,6 km/h (1 Bft) 2 min 10,3 km/h (2 Bft)
22.06.2009 17:20 21,2 C 19,2 C 3,6 UV-I 3,8 C 48 % 53 % 100 % 1026,7 hPa 0,0 l/m 3,1 km/h (1 Bft) 2 min 2,6 km/h (1 Bft)
22.06.2009 17:22 21,2 C 19,2 C 2,9 UV-I 3,4 C 48 % 53 % 97 % 1026,7 hPa 0,0 l/m 3,4 km/h (1 Bft) 2 min 6,7 km/h (2 Bft)
22.06.2009 17:24 21,2 C 19,3 C 2,9 UV-I 3,0 C 48 % 52 % 86 % 1026,7 hPa 0,0 l/m 3,6 km/h (1 Bft) 2 min 3,6 km/h (1 Bft)
22.06.2009 17:26 21,2 C 19,3 C 2,9 UV-I 2,7 C 48 % 52 % 77 % 1026,7 hPa 0,0 l/m 3,6 km/h (1 Bft) 0 min 3,4 km/h (1 Bft)
22.06.2009 17:28 21,2 C 19,1 C 2,7 UV-I 2,5 C 48 % 52 % 71 % 1026,7 hPa 0,0 l/m 3,8 km/h (1 Bft) 0 min 5,3 km/h (1 Bft)
22.06.2009 17:30 21,2 C 19,2 C 2,7 UV-I 2,1 C 48 % 52 % 60 % 1026,7 hPa 0,0 l/m 3,4 km/h (1 Bft) 0 min 4,3 km/h (1 Bft)
22.06.2009 17:32 21,2 C 19,2 C 2,7 UV-I 2,0 C 48 % 52 % 57 % 1026,7 hPa 0,0 l/m 3,1 km/h (1 Bft) 0 min 0,0 km/h (0 Bft)
22.06.2009 17:34 21,2 C 19,2 C 2,7 UV-I 2,3 C 48 % 51 % 66 % 1026,7 hPa 0,0 l/m 3,4 km/h (1 Bft) 0 min 3,8 km/h (1 Bft)
22.06.2009 17:36 21,2 C 19,2 C 2,7 UV-I 2,6 C 48 % 50 % 74 % 1026,7 hPa 0,0 l/m 3,4 km/h (1 Bft) 0 min 5,8 km/h (2 Bft)
22.06.2009 17:38 21,4 C 19,2 C 4,2 UV-I 2,7 C 48 % 51 % 77 % 1026,7 hPa 0,0 l/m 3,8 km/h (1 Bft) 0 min 7,9 km/h (2 Bft)
22.06.2009 17:40 21,4 C 19,1 C 4,2 UV-I 2,7 C 48 % 50 % 77 % 1026,7 hPa 0,0 l/m 3,6 km/h (1 Bft) 0 min 7,0 km/h (2 Bft)
22.06.2009 17:42 21,4 C 19,1 C 3,2 UV-I 2,5 C 48 % 50 % 71 % 1026,7 hPa 0,0 l/m 3,6 km/h (1 Bft) 0 min 0,0 km/h (0 Bft)
22.06.2009 17:46 21,4 C 19,1 C 3,2 UV-I 2,2 C 48 % 52 % 63 % 1026,7 hPa 0,0 l/m 4,1 km/h (1 Bft) 0 min 4,3 km/h (1 Bft)
22.06.2009 17:48 21,4 C 19,1 C 2,5 UV-I 2,1 C 48 % 52 % 60 % 1026,7 hPa 0,0 l/m 3,8 km/h (1 Bft) 0 min 4,6 km/h (1 Bft)
22.06.2009 17:50 21,4 C 19,1 C 2,5 UV-I 1,9 C 48 % 52 % 54 % 1026,7 hPa 0,0 l/m 3,1 km/h (1 Bft) 0 min 0,0 km/h (0 Bft)
22.06.2009 17:52 21,4 C 19,1 C 1,7 UV-I 1,7 C 47 % 53 % 49 % 1026,7 hPa 0,0 l/m 2,6 km/h (1 Bft) 0 min 3,1 km/h (1 Bft)
22.06.2009 17:54 21,4 C 19,1 C 1,7 UV-I 1,5 C 47 % 53 % 43 % 1026,7 hPa 0,0 l/m 2,9 km/h (1 Bft) 0 min 9,6 km/h (2 Bft)
22.06.2009 17:56 21,4 C 19,1 C 1,7 UV-I 1,3 C 47 % 54 % 37 % 1026,7 hPa 0,0 l/m 2,2 km/h (1 Bft) 0 min 0,0 km/h (0 Bft)
22.06.2009 17:58 21,4 C 19,0 C 1,3 UV-I 1,1 C 47 % 53 % 31 % 1026,8 hPa 0,0 l/m 1,7 km/h (1 Bft) 0 min 4,8 km/h (1 Bft)
22.06.2009 18:02 21,4 C 18,9 C 1,4 UV-I 0,8 C 47 % 53 % 23 % 1026,8 hPa 0,0 l/m 2,2 km/h (1 Bft) 0 min 5,5 km/h (1 Bft)
22.06.2009 18:04 21,4 C 18,9 C 1,4 UV-I 0,6 C 47 % 54 % 17 % 1026,8 hPa 0,0 l/m 2,4 km/h (1 Bft) 0 min 0,0 km/h (0 Bft)
22.06.2009 18:06 21,5 C 18,9 C 1,4 UV-I 0,5 C 47 % 54 % 14 % 1026,8 hPa 0,0 l/m 1,9 km/h (1 Bft) 0 min 0,0 km/h (0 Bft)
22.06.2009 18:08 21,5 C 18,9 C 1,8 UV-I 0,3 C 47 % 55 % 9 % 1026,8 hPa 0,0 l/m 2,6 km/h (1 Bft) 0 min 5,1 km/h (1 Bft)
22.06.2009 18:10 21,5 C 18,8 C 1,8 UV-I 0,3 C 47 % 55 % 9 % 1026,8 hPa 0,0 l/m 2,4 km/h (1 Bft) 0 min 0,0 km/h (0 Bft)
22.06.2009 18:12 21,5 C 18,8 C 2,0 UV-I 0,2 C 47 % 55 % 6 % 1026,8 hPa 0,0 l/m 2,4 km/h (1 Bft) 0 min 5,1 km/h (1 Bft)
22.06.2009 18:14 21,5 C 18,8 C 2,0 UV-I 0,1 C 47 % 55 % 3 % 1026,8 hPa 0,0 l/m 2,2 km/h (1 Bft) 0 min 5,3 km/h (1 Bft)
22.06.2009 18:18 21,5 C 18,7 C 2,2 UV-I 0,1 C 48 % 55 % 3 % 1026,6 hPa 0,0 l/m 3,6 km/h (1 Bft) 0 min 9,9 km/h (2 Bft)
22.06.2009 18:20 21,5 C 18,6 C 2,2 UV-I 0,2 C 48 % 55 % 6 % 1026,6 hPa 0,0 l/m 3,6 km/h (1 Bft) 0 min 7,2 km/h (2 Bft)
22.06.2009 18:22 21,5 C 18,6 C 2,8 UV-I 0,4 C 48 % 55 % 11 % 1026,6 hPa 0,0 l/m 4,3 km/h (1 Bft) 0 min 8,2 km/h (2 Bft)
22.06.2009 18:24 21,5 C 18,7 C 2,8 UV-I 0,8 C 48 % 55 % 23 % 1026,6 hPa 0,0 l/m 4,3 km/h (1 Bft) 0 min 6,7 km/h (2 Bft)
22.06.2009 18:26 21,5 C 18,8 C 2,8 UV-I 1,4 C 48 % 56 % 40 % 1026,6 hPa 0,0 l/m 4,3 km/h (1 Bft) 0 min 4,3 km/h (1 Bft)
22.06.2009 18:28 21,5 C 18,9 C 2,6 UV-I 1,8 C 48 % 56 % 51 % 1026,6 hPa 0,0 l/m 4,1 km/h (1 Bft) 0 min 3,4 km/h (1 Bft)
22.06.2009 18:30 21,4 C 18,8 C 2,6 UV-I 2,4 C 48 % 56 % 69 % 1026,6 hPa 0,0 l/m 3,6 km/h (1 Bft) 0 min 2,9 km/h (1 Bft)
22.06.2009 18:34 21,4 C 18,8 C 2,5 UV-I 2,7 C 48 % 56 % 77 % 1026,6 hPa 0,0 l/m 3,1 km/h (1 Bft) 0 min 6,0 km/h (2 Bft)
22.06.2009 18:38 21,4 C 18,7 C 2,3 UV-I 2,6 C 48 % 56 % 74 % 1026,5 hPa 0,0 l/m 2,9 km/h (1 Bft) 0 min 4,6 km/h (1 Bft)
22.06.2009 18:40 21,4 C 18,6 C 2,3 UV-I 2,8 C 48 % 56 % 80 % 1026,5 hPa 0,0 l/m 3,1 km/h (1 Bft) 0 min 0,0 km/h (0 Bft)
22.06.2009 18:42 21,4 C 18,7 C 2,2 UV-I 2,8 C 48 % 56 % 80 % 1026,5 hPa 0,0 l/m 3,1 km/h (1 Bft) 0 min 5,3 km/h (1 Bft)
22.06.2009 18:44 21,4 C 18,6 C 2,2 UV-I 3,0 C 48 % 56 % 86 % 1026,5 hPa 0,0 l/m 3,4 km/h (1 Bft) 2 min 5,1 km/h (1 Bft)
22.06.2009 18:46 21,4 C 18,7 C 2,2 UV-I 2,9 C 48 % 56 % 83 % 1026,5 hPa 0,0 l/m 3,4 km/h (1 Bft) 2 min 4,3 km/h (1 Bft)
22.06.2009 18:48 21,4 C 18,7 C 2,1 UV-I 2,8 C 48 % 56 % 80 % 1026,5 hPa 0,0 l/m 2,9 km/h (1 Bft) 0 min 3,4 km/h (1 Bft)
22.06.2009 18:50 21,4 C 18,7 C 2,1 UV-I 2,6 C 48 % 55 % 74 % 1026,5 hPa 0,0 l/m 2,9 km/h (1 Bft) 0 min 3,8 km/h (1 Bft)
22.06.2009 18:52 21,4 C 18,7 C 2,1 UV-I 2,2 C 48 % 55 % 63 % 1026,5 hPa 0,0 l/m 3,8 km/h (1 Bft) 0 min 5,5 km/h (1 Bft)
22.06.2009 18:54 21,4 C 18,5 C 2,1 UV-I 2,0 C 48 % 54 % 57 % 1026,5 hPa 0,0 l/m 3,6 km/h (1 Bft) 0 min 0,0 km/h (0 Bft)
22.06.2009 18:56 21,4 C 18,4 C 2,1 UV-I 1,7 C 48 % 54 % 49 % 1026,5 hPa 0,0 l/m 3,4 km/h (1 Bft) 0 min 5,1 km/h (1 Bft)
22.06.2009 18:58 21,4 C 18,5 C 2,0 UV-I 1,2 C 48 % 54 % 34 % 1026,3 hPa 0,0 l/m 3,1 km/h (1 Bft) 0 min 7,0 km/h (2 Bft)
22.06.2009 19:00 21,4 C 18,4 C 2,0 UV-I 1,2 C 48 % 53 % 34 % 1026,3 hPa 0,0 l/m 3,1 km/h (1 Bft) 0 min 3,8 km/h (1 Bft)
22.06.2009 19:02 21,4 C 18,4 C 1,9 UV-I 0,8 C 48 % 53 % 23 % 1026,3 hPa 0,0 l/m 2,6 km/h (1 Bft) 0 min 4,1 km/h (1 Bft)
22.06.2009 19:06 21,4 C 18,4 C 1,9 UV-I 0,4 C 48 % 53 % 11 % 1026,3 hPa 0,0 l/m 3,1 km/h (1 Bft) 0 min 7,9 km/h (2 Bft)
22.06.2009 19:08 21,2 C 18,5 C 1,9 UV-I 0,2 C 48 % 54 % 6 % 1026,3 hPa 0,0 l/m 2,9 km/h (1 Bft) 0 min 3,1 km/h (1 Bft)
22.06.2009 19:10 21,2 C 18,3 C 1,9 UV-I 0,2 C 48 % 55 % 6 % 1026,3 hPa 0,0 l/m 2,6 km/h (1 Bft) 0 min 5,8 km/h (2 Bft)
22.06.2009 19:12 21,2 C 18,3 C 1,8 UV-I 0,1 C 48 % 55 % 3 % 1026,3 hPa 0,0 l/m 2,4 km/h (1 Bft) 0 min 4,8 km/h (1 Bft)
22.06.2009 19:14 21,3 C 18,3 C 1,8 UV-I 0,0 C 48 % 55 % 0 % 1026,3 hPa 0,0 l/m 2,4 km/h (1 Bft) 0 min 4,1 km/h (1 Bft)
22.06.2009 19:16 21,3 C 18,3 C 1,8 UV-I 0,0 C 48 % 55 % 0 % 1026,3 hPa 0,0 l/m 1,7 km/h (1 Bft) 0 min 4,6 km/h (1 Bft)
22.06.2009 19:18 21,2 C 18,3 C 1,7 UV-I 0,0 C 48 % 55 % 0 % 1026,6 hPa 0,0 l/m 1,7 km/h (1 Bft) 0 min 3,8 km/h (1 Bft)
22.06.2009 19:20 21,3 C 18,3 C 1,7 UV-I 0,0 C 48 % 55 % 0 % 1026,6 hPa 0,0 l/m 1,7 km/h (1 Bft) 0 min 4,6 km/h (1 Bft)
22.06.2009 19:22 21,2 C 18,3 C 1,7 UV-I 0,0 C 48 % 55 % 0 % 1026,6 hPa 0,0 l/m 1,9 km/h (1 Bft) 0 min 3,4 km/h (1 Bft)
22.06.2009 19:24 21,3 C 18,3 C 1,7 UV-I 0,0 C 48 % 54 % 0 % 1026,6 hPa 0,0 l/m 2,2 km/h (1 Bft) 0 min 4,3 km/h (1 Bft)
22.06.2009 19:26 21,2 C 18,3 C 1,7 UV-I 0,0 C 48 % 54 % 0 % 1026,6 hPa 0,0 l/m 2,6 km/h (1 Bft) 0 min 8,2 km/h (2 Bft)
22.06.2009 19:28 21,2 C 18,2 C 1,6 UV-I 0,0 C 48 % 54 % 0 % 1026,6 hPa 0,0 l/m 2,9 km/h (1 Bft) 0 min 0,0 km/h (0 Bft)
22.06.2009 19:30 21,2 C 18,2 C 1,6 UV-I 0,0 C 48 % 55 % 0 % 1026,6 hPa 0,0 l/m 2,9 km/h (1 Bft) 0 min 0,0 km/h (0 Bft)
22.06.2009 19:32 21,2 C 18,3 C 1,6 UV-I 0,0 C 48 % 55 % 0 % 1026,6 hPa 0,0 l/m 2,9 km/h (1 Bft) 0 min 7,2 km/h (2 Bft)
22.06.2009 19:34 21,2 C 18,3 C 1,6 UV-I 0,0 C 48 % 55 % 0 % 1026,6 hPa 0,0 l/m 2,9 km/h (1 Bft) 0 min 4,1 km/h (1 Bft)
22.06.2009 19:38 21,2 C 18,3 C 1,5 UV-I 0,0 C 48 % 55 % 0 % 1026,6 hPa 0,0 l/m 2,6 km/h (1 Bft) 0 min 6,7 km/h (2 Bft)
22.06.2009 19:40 21,2 C 18,3 C 1,5 UV-I 0,0 C 48 % 55 % 0 % 1026,6 hPa 0,0 l/m 3,4 km/h (1 Bft) 0 min 4,6 km/h (1 Bft)
22.06.2009 19:42 21,2 C 18,3 C 1,5 UV-I 0,0 C 48 % 55 % 0 % 1026,6 hPa 0,0 l/m 3,6 km/h (1 Bft) 0 min 5,8 km/h (2 Bft)
22.06.2009 19:44 21,2 C 18,3 C 1,5 UV-I 0,0 C 48 % 56 % 0 % 1026,6 hPa 0,0 l/m 3,6 km/h (1 Bft) 0 min 5,3 km/h (1 Bft)
22.06.2009 19:46 21,2 C 18,3 C 1,5 UV-I 0,0 C 48 % 56 % 0 % 1026,6 hPa 0,0 l/m 3,4 km/h (1 Bft) 0 min 3,1 km/h (1 Bft)
22.06.2009 19:48 21,2 C 18,3 C 1,3 UV-I 0,0 C 48 % 56 % 0 % 1026,6 hPa 0,0 l/m 3,6 km/h (1 Bft) 0 min 7,0 km/h (2 Bft)
22.06.2009 19:50 21,2 C 18,2 C 1,3 UV-I 0,0 C 48 % 56 % 0 % 1026,6 hPa 0,0 l/m 3,4 km/h (1 Bft) 0 min 7,9 km/h (2 Bft)
22.06.2009 19:52 21,2 C 18,2 C 1,2 UV-I 0,0 C 48 % 56 % 0 % 1026,6 hPa 0,0 l/m 3,6 km/h (1 Bft) 0 min 4,6 km/h (1 Bft)
22.06.2009 19:54 21,1 C 18,2 C 1,2 UV-I 0,0 C 48 % 56 % 0 % 1026,6 hPa 0,0 l/m 3,8 km/h (1 Bft) 0 min 5,3 km/h (1 Bft)
22.06.2009 19:58 21,1 C 18,1 C 1,2 UV-I 0,0 C 48 % 56 % 0 % 1026,7 hPa 0,0 l/m 3,6 km/h (1 Bft) 0 min 5,3 km/h (1 Bft)
22.06.2009 20:00 21,1 C 18,1 C 1,2 UV-I 0,0 C 48 % 56 % 0 % 1026,7 hPa 0,0 l/m 3,1 km/h (1 Bft) 0 min 3,6 km/h (1 Bft)
22.06.2009 20:02 21,1 C 18,1 C 1,2 UV-I 0,0 C 48 % 57 % 0 % 1026,7 hPa 0,0 l/m 2,6 km/h (1 Bft) 0 min 0,0 km/h (0 Bft)
22.06.2009 20:06 21,1 C 18,1 C 1,2 UV-I 0,0 C 48 % 57 % 0 % 1026,7 hPa 0,0 l/m 1,9 km/h (1 Bft) 0 min 2,6 km/h (1 Bft)
22.06.2009 20:08 21,1 C 18,0 C 1,1 UV-I 0,0 C 48 % 57 % 0 % 1026,7 hPa 0,0 l/m 2,2 km/h (1 Bft) 0 min 6,0 km/h (2 Bft)
22.06.2009 20:10 21,1 C 18,0 C 1,1 UV-I 0,0 C 48 % 57 % 0 % 1026,7 hPa 0,0 l/m 1,4 km/h (1 Bft) 0 min 0,0 km/h (0 Bft)
22.06.2009 20:12 21,1 C 18,1 C 0,9 UV-I 0,0 C 48 % 58 % 0 % 1026,7 hPa 0,0 l/m 1,7 km/h (1 Bft) 0 min 3,8 km/h (1 Bft)
22.06.2009 20:14 21,1 C 18,0 C 0,9 UV-I 0,0 C 48 % 58 % 0 % 1026,7 hPa 0,0 l/m 1,7 km/h (1 Bft) 0 min 0,0 km/h (0 Bft)
22.06.2009 20:16 21,0 C 18,0 C 0,9 UV-I 0,0 C 48 % 59 % 0 % 1026,7 hPa 0,0 l/m 1,2 km/h (1 Bft) 0 min 0,0 km/h (0 Bft)
22.06.2009 20:18 21,0 C 18,1 C 0,9 UV-I 0,0 C 48 % 58 % 0 % 1026,6 hPa 0,0 l/m 1,2 km/h (1 Bft) 0 min 3,6 km/h (1 Bft)
22.06.2009 20:20 21,0 C 18,1 C 0,9 UV-I 0,0 C 49 % 58 % 0 % 1026,6 hPa 0,0 l/m 1,2 km/h (1 Bft) 0 min 4,3 km/h (1 Bft)
22.06.2009 20:22 21,0 C 18,0 C 0,8 UV-I 0,0 C 49 % 58 % 0 % 1026,6 hPa 0,0 l/m 1,4 km/h (1 Bft) 0 min 0,0 km/h (0 Bft)
22.06.2009 20:24 21,0 C 18,0 C 0,8 UV-I 0,0 C 49 % 58 % 0 % 1026,6 hPa 0,0 l/m 1,7 km/h (1 Bft) 0 min 5,1 km/h (1 Bft)
22.06.2009 20:26 21,0 C 18,0 C 0,8 UV-I 0,0 C 49 % 57 % 0 % 1026,6 hPa 0,0 l/m 1,9 km/h (1 Bft) 0 min 2,9 km/h (1 Bft)
22.06.2009 20:28 21,0 C 18,0 C 0,8 UV-I 0,0 C 49 % 57 % 0 % 1026,6 hPa 0,0 l/m 2,6 km/h (1 Bft) 0 min 3,8 km/h (1 Bft)
22.06.2009 20:30 21,0 C 17,9 C 0,8 UV-I 0,0 C 49 % 57 % 0 % 1026,6 hPa 0,0 l/m 2,6 km/h (1 Bft) 0 min 0,0 km/h (0 Bft)
22.06.2009 20:32 21,0 C 17,9 C 0,7 UV-I 0,0 C 49 % 58 % 0 % 1026,6 hPa 0,0 l/m 2,4 km/h (1 Bft) 0 min 2,4 km/h (1 Bft)
22.06.2009 20:34 21,0 C 17,9 C 0,7 UV-I 0,0 C 49 % 58 % 0 % 1026,6 hPa 0,0 l/m 2,4 km/h (1 Bft) 0 min 2,9 km/h (1 Bft)
22.06.2009 20:36 21,0 C 17,9 C 0,7 UV-I 0,0 C 49 % 58 % 0 % 1026,6 hPa 0,0 l/m 1,9 km/h (1 Bft) 0 min 0,0 km/h (0 Bft)
22.06.2009 20:38 21,0 C 17,9 C 0,7 UV-I 0,0 C 49 % 58 % 0 % 1026,6 hPa 0,0 l/m 1,7 km/h (1 Bft) 0 min 0,0 km/h (0 Bft)
22.06.2009 20:40 21,0 C 17,8 C 0,7 UV-I 0,0 C 49 % 58 % 0 % 1026,6 hPa 0,0 l/m 1,0 km/h (0 Bft) 0 min 0,0 km/h (0 Bft)
22.06.2009 20:44 21,0 C 17,9 C 0,6 UV-I 0,0 C 49 % 58 % 0 % 1026,6 hPa 0,0 l/m 0,7 km/h (0 Bft) 0 min 2,6 km/h (1 Bft)
22.06.2009 20:46 21,0 C 17,8 C 0,6 UV-I 0,0 C 49 % 58 % 0 % 1026,6 hPa 0,0 l/m 0,5 km/h (0 Bft) 0 min 0,0 km/h (0 Bft)
22.06.2009 20:48 21,0 C 17,9 C 0,5 UV-I 0,0 C 49 % 59 % 0 % 1026,6 hPa 0,0 l/m 0,2 km/h (0 Bft) 0 min 0,0 km/h (0 Bft)
22.06.2009 20:50 21,0 C 17,7 C 0,5 UV-I 0,0 C 49 % 59 % 0 % 1026,6 hPa 0,0 l/m 0,2 km/h (0 Bft) 0 min 0,0 km/h (0 Bft)
22.06.2009 20:52 21,0 C 17,7 C 0,4 UV-I 0,0 C 49 % 59 % 0 % 1026,6 hPa 0,0 l/m 0,5 km/h (0 Bft) 0 min 0,0 km/h (0 Bft)
22.06.2009 20:54 21,0 C 17,7 C 0,4 UV-I 0,0 C 49 % 60 % 0 % 1026,6 hPa 0,0 l/m 0,2 km/h (0 Bft) 0 min 0,0 km/h (0 Bft)
22.06.2009 20:56 21,0 C 17,6 C 0,4 UV-I 0,0 C 49 % 59 % 0 % 1026,6 hPa 0,0 l/m 0,2 km/h (0 Bft) 0 min 0,0 km/h (0 Bft)
22.06.2009 21:00 21,0 C 17,6 C 0,4 UV-I 0,0 C 49 % 60 % 0 % 1026,6 hPa 0,0 l/m 0,0 km/h (0 Bft) 0 min 0,0 km/h (0 Bft)
22.06.2009 21:02 21,0 C 17,5 C 0,3 UV-I 0,0 C 49 % 60 % 0 % 1026,6 hPa 0,0 l/m 0,0 km/h (0 Bft) 0 min 0,0 km/h (0 Bft)
22.06.2009 21:04 21,0 C 17,5 C 0,3 UV-I 0,0 C 49 % 61 % 0 % 1026,6 hPa 0,0 l/m 0,0 km/h (0 Bft) 0 min 0,0 km/h (0 Bft)
22.06.2009 21:06 20,9 C 17,5 C 0,3 UV-I 0,0 C 49 % 61 % 0 % 1026,6 hPa 0,0 l/m 0,0 km/h (0 Bft) 0 min 0,0 km/h (0 Bft)
22.06.2009 21:08 20,9 C 17,5 C 0,3 UV-I 0,0 C 49 % 61 % 0 % 1026,6 hPa 0,0 l/m 0,0 km/h (0 Bft) 0 min 0,0 km/h (0 Bft)
22.06.2009 21:10 20,9 C 17,3 C 0,3 UV-I 0,0 C 49 % 62 % 0 % 1026,6 hPa 0,0 l/m 0,0 km/h (0 Bft) 0 min 0,0 km/h (0 Bft)
22.06.2009 21:12 21,0 C 17,2 C 0,3 UV-I 0,0 C 49 % 62 % 0 % 1026,6 hPa 0,0 l/m 0,0 km/h (0 Bft) 0 min 0,0 km/h (0 Bft)
22.06.2009 21:14 20,9 C 17,2 C 0,3 UV-I 0,0 C 49 % 62 % 0 % 1026,6 hPa 0,0 l/m 0,0 km/h (0 Bft) 0 min 0,0 km/h (0 Bft)
22.06.2009 21:16 21,0 C 17,2 C 0,3 UV-I 0,0 C 49 % 62 % 0 % 1026,6 hPa 0,0 l/m 0,0 km/h (0 Bft) 0 min 0,0 km/h (0 Bft)
22.06.2009 21:18 20,9 C 17,1 C 0,2 UV-I 0,0 C 50 % 63 % 0 % 1026,6 hPa 0,0 l/m 0,0 km/h (0 Bft) 0 min 0,0 km/h (0 Bft)
22.06.2009 21:20 20,9 C 17,1 C 0,2 UV-I 0,0 C 50 % 63 % 0 % 1026,6 hPa 0,0 l/m 0,0 km/h (0 Bft) 0 min 0,0 km/h (0 Bft)
22.06.2009 21:22 20,9 C 17,1 C 0,2 UV-I 0,0 C 50 % 63 % 0 % 1026,6 hPa 0,0 l/m 0,0 km/h (0 Bft) 0 min 0,0 km/h (0 Bft)
22.06.2009 21:24 20,9 C 17,1 C 0,2 UV-I 0,0 C 50 % 64 % 0 % 1026,6 hPa 0,0 l/m 0,0 km/h (0 Bft) 0 min 0,0 km/h (0 Bft)
22.06.2009 21:26 20,9 C 16,9 C 0,2 UV-I 0,0 C 50 % 64 % 0 % 1026,6 hPa 0,0 l/m 0,0 km/h (0 Bft) 0 min 0,0 km/h (0 Bft)
22.06.2009 21:28 20,9 C 16,8 C 0,1 UV-I 0,0 C 50 % 64 % 0 % 1026,6 hPa 0,0 l/m 0,0 km/h (0 Bft) 0 min 0,0 km/h (0 Bft)
22.06.2009 21:30 20,8 C 16,8 C 0,1 UV-I 0,0 C 50 % 64 % 0 % 1026,6 hPa 0,0 l/m 0,0 km/h (0 Bft) 0 min 0,0 km/h (0 Bft)
22.06.2009 21:32 20,8 C 16,7 C 0,1 UV-I 0,0 C 50 % 65 % 0 % 1026,6 hPa 0,0 l/m 0,0 km/h (0 Bft) 0 min 0,0 km/h (0 Bft)
22.06.2009 21:34 20,8 C 16,7 C 0,1 UV-I 0,0 C 50 % 65 % 0 % 1026,6 hPa 0,0 l/m 0,0 km/h (0 Bft) 0 min 0,0 km/h (0 Bft)
22.06.2009 21:36 20,8 C 16,6 C 0,1 UV-I 0,0 C 50 % 65 % 0 % 1026,6 hPa 0,0 l/m 0,0 km/h (0 Bft) 0 min 0,0 km/h (0 Bft)
22.06.2009 21:38 20,8 C 16,7 C 0,1 UV-I 0,0 C 50 % 66 % 0 % 1026,7 hPa 0,0 l/m 0,0 km/h (0 Bft) 0 min 0,0 km/h (0 Bft)
22.06.2009 21:40 20,8 C 16,5 C 0,1 UV-I 0,0 C 50 % 65 % 0 % 1026,7 hPa 0,0 l/m 0,0 km/h (0 Bft) 0 min 0,0 km/h (0 Bft)
22.06.2009 21:42 20,8 C 16,4 C 0,1 UV-I 0,0 C 51 % 66 % 0 % 1026,7 hPa 0,0 l/m 0,0 km/h (0 Bft) 0 min 0,0 km/h (0 Bft)
22.06.2009 21:44 20,8 C 16,3 C 0,1 UV-I 0,0 C 51 % 66 % 0 % 1026,7 hPa 0,0 l/m 0,0 km/h (0 Bft) 0 min 0,0 km/h (0 Bft)
22.06.2009 21:46 20,8 C 16,3 C 0,1 UV-I 0,0 C 51 % 66 % 0 % 1026,7 hPa 0,0 l/m 0,0 km/h (0 Bft) 0 min 0,0 km/h (0 Bft)
22.06.2009 21:48 20,8 C 16,2 C 0,0 UV-I 0,0 C 51 % 67 % 0 % 1026,7 hPa 0,0 l/m 0,0 km/h (0 Bft) 0 min 0,0 km/h (0 Bft)
22.06.2009 21:50 20,8 C 16,2 C 0,0 UV-I 0,0 C 51 % 67 % 0 % 1026,7 hPa 0,0 l/m 0,0 km/h (0 Bft) 0 min 0,0 km/h (0 Bft)
22.06.2009 21:52 20,7 C 16,0 C 0,0 UV-I 0,0 C 51 % 67 % 0 % 1026,7 hPa 0,0 l/m 0,0 km/h (0 Bft) 0 min 0,0 km/h (0 Bft)
22.06.2009 21:54 20,7 C 16,0 C 0,0 UV-I 0,0 C 51 % 67 % 0 % 1026,7 hPa 0,0 l/m 0,0 km/h (0 Bft) 0 min 0,0 km/h (0 Bft)
22.06.2009 21:56 20,7 C 15,9 C 0,0 UV-I 0,0 C 51 % 67 % 0 % 1026,7 hPa 0,0 l/m 0,0 km/h (0 Bft) 0 min 0,0 km/h (0 Bft)
22.06.2009 21:58 20,7 C 15,9 C 0,0 UV-I 0,0 C 51 % 67 % 0 % 1026,9 hPa 0,0 l/m 0,0 km/h (0 Bft) 0 min 0,0 km/h (0 Bft)
22.06.2009 22:00 20,7 C 15,9 C 0,0 UV-I 0,0 C 51 % 67 % 0 % 1026,9 hPa 0,0 l/m 0,0 km/h (0 Bft) 0 min 0,0 km/h (0 Bft)
22.06.2009 22:02 20,7 C 15,7 C 0,0 UV-I 0,0 C 51 % 68 % 0 % 1026,9 hPa 0,0 l/m 0,0 km/h (0 Bft) 0 min 0,0 km/h (0 Bft)
22.06.2009 22:04 20,6 C 15,7 C 0,0 UV-I 0,0 C 51 % 68 % 0 % 1026,9 hPa 0,0 l/m 0,0 km/h (0 Bft) 0 min 0,0 km/h (0 Bft)
22.06.2009 22:06 20,6 C 15,7 C 0,0 UV-I 0,0 C 51 % 68 % 0 % 1026,9 hPa 0,0 l/m 0,0 km/h (0 Bft) 0 min 0,0 km/h (0 Bft)
22.06.2009 22:08 20,6 C 15,5 C 0,0 UV-I 0,0 C 51 % 68 % 0 % 1026,9 hPa 0,0 l/m 0,0 km/h (0 Bft) 0 min 0,0 km/h (0 Bft)
22.06.2009 22:10 20,6 C 15,4 C 0,0 UV-I 0,0 C 51 % 69 % 0 % 1026,9 hPa 0,0 l/m 0,0 km/h (0 Bft) 0 min 0,0 km/h (0 Bft)
22.06.2009 22:12 20,6 C 15,3 C 0,0 UV-I 0,0 C 51 % 69 % 0 % 1026,9 hPa 0,0 l/m 0,0 km/h (0 Bft) 0 min 0,0 km/h (0 Bft)
22.06.2009 22:14 20,6 C 15,3 C 0,0 UV-I 0,0 C 51 % 69 % 0 % 1026,9 hPa 0,0 l/m 0,0 km/h (0 Bft) 0 min 0,0 km/h (0 Bft)
22.06.2009 22:16 20,5 C 15,2 C 0,0 UV-I 0,0 C 51 % 69 % 0 % 1026,9 hPa 0,0 l/m 0,0 km/h (0 Bft) 0 min 0,0 km/h (0 Bft)
22.06.2009 22:18 20,5 C 15,2 C 0,0 UV-I 0,0 C 51 % 70 % 0 % 1027,2 hPa 0,0 l/m 0,0 km/h (0 Bft) 0 min 0,0 km/h (0 Bft)
22.06.2009 22:20 20,5 C 15,0 C 0,0 UV-I 0,0 C 52 % 70 % 0 % 1027,2 hPa 0,0 l/m 0,0 km/h (0 Bft) 0 min 0,0 km/h (0 Bft)
22.06.2009 22:22 20,5 C 15,1 C 0,0 UV-I 0,0 C 52 % 70 % 0 % 1027,2 hPa 0,0 l/m 0,0 km/h (0 Bft) 0 min 0,0 km/h (0 Bft)
22.06.2009 22:24 20,5 C 15,1 C 0,0 UV-I 0,0 C 52 % 70 % 0 % 1027,2 hPa 0,0 l/m 0,0 km/h (0 Bft) 0 min 0,0 km/h (0 Bft)
22.06.2009 22:26 20,5 C 14,8 C 0,0 UV-I 0,0 C 52 % 71 % 0 % 1027,2 hPa 0,0 l/m 0,0 km/h (0 Bft) 0 min 0,0 km/h (0 Bft)
22.06.2009 22:28 20,4 C 14,8 C 0,0 UV-I 0,0 C 52 % 71 % 0 % 1027,2 hPa 0,0 l/m 0,0 km/h (0 Bft) 0 min 0,0 km/h (0 Bft)
22.06.2009 22:30 20,4 C 14,8 C 0,0 UV-I 0,0 C 52 % 71 % 0 % 1027,2 hPa 0,0 l/m 0,0 km/h (0 Bft) 0 min 0,0 km/h (0 Bft)
22.06.2009 22:32 20,4 C 14,8 C 0,0 UV-I 0,0 C 52 % 71 % 0 % 1027,2 hPa 0,0 l/m 0,0 km/h (0 Bft) 0 min 0,0 km/h (0 Bft)
22.06.2009 22:34 20,4 C 14,7 C 0,0 UV-I 0,0 C 52 % 71 % 0 % 1027,2 hPa 0,0 l/m 0,0 km/h (0 Bft) 0 min 0,0 km/h (0 Bft)
22.06.2009 22:36 20,4 C 14,7 C 0,0 UV-I 0,0 C 52 % 71 % 0 % 1027,2 hPa 0,0 l/m 0,0 km/h (0 Bft) 0 min 0,0 km/h (0 Bft)
22.06.2009 22:38 20,4 C 14,5 C 0,0 UV-I 0,0 C 52 % 72 % 0 % 1027,3 hPa 0,0 l/m 0,0 km/h (0 Bft) 0 min 0,0 km/h (0 Bft)
22.06.2009 22:42 20,4 C 14,4 C 0,0 UV-I 0,0 C 52 % 72 % 0 % 1027,3 hPa 0,0 l/m 0,0 km/h (0 Bft) 0 min 0,0 km/h (0 Bft)
22.06.2009 22:44 20,2 C 14,4 C 0,0 UV-I 0,0 C 52 % 72 % 0 % 1027,3 hPa 0,0 l/m 0,0 km/h (0 Bft) 0 min 0,0 km/h (0 Bft)
22.06.2009 22:46 20,2 C 14,3 C 0,0 UV-I 0,0 C 52 % 73 % 0 % 1027,3 hPa 0,0 l/m 0,0 km/h (0 Bft) 0 min 0,0 km/h (0 Bft)
22.06.2009 22:48 20,3 C 14,3 C 0,0 UV-I 0,0 C 52 % 73 % 0 % 1027,3 hPa 0,0 l/m 0,0 km/h (0 Bft) 0 min 0,0 km/h (0 Bft)
22.06.2009 22:50 20,3 C 14,2 C 0,0 UV-I 0,0 C 52 % 73 % 0 % 1027,3 hPa 0,0 l/m 0,0 km/h (0 Bft) 0 min 0,0 km/h (0 Bft)
22.06.2009 22:52 20,3 C 14,2 C 0,0 UV-I 0,0 C 52 % 73 % 0 % 1027,3 hPa 0,0 l/m 0,0 km/h (0 Bft) 0 min 0,0 km/h (0 Bft)
22.06.2009 22:54 20,3 C 14,1 C 0,0 UV-I 0,0 C 52 % 74 % 0 % 1027,3 hPa 0,0 l/m 0,0 km/h (0 Bft) 0 min 0,0 km/h (0 Bft)
22.06.2009 22:56 20,2 C 14,1 C 0,0 UV-I 0,0 C 52 % 74 % 0 % 1027,3 hPa 0,0 l/m 0,0 km/h (0 Bft) 0 min 0,0 km/h (0 Bft)
22.06.2009 22:58 20,2 C 14,0 C 0,0 UV-I 0,0 C 52 % 74 % 0 % 1027,2 hPa 0,0 l/m 0,0 km/h (0 Bft) 0 min 0,0 km/h (0 Bft)
22.06.2009 23:00 20,2 C 13,9 C 0,0 UV-I 0,0 C 52 % 74 % 0 % 1027,2 hPa 0,0 l/m 0,0 km/h (0 Bft) 0 min 0,0 km/h (0 Bft)
22.06.2009 23:02 20,2 C 13,9 C 0,0 UV-I 0,0 C 52 % 74 % 0 % 1027,2 hPa 0,0 l/m 0,0 km/h (0 Bft) 0 min 0,0 km/h (0 Bft)
22.06.2009 23:04 20,2 C 13,7 C 0,0 UV-I 0,0 C 52 % 75 % 0 % 1027,2 hPa 0,0 l/m 0,0 km/h (0 Bft) 0 min 0,0 km/h (0 Bft)
22.06.2009 23:06 20,2 C 13,7 C 0,0 UV-I 0,0 C 52 % 75 % 0 % 1027,2 hPa 0,0 l/m 0,0 km/h (0 Bft) 0 min 0,0 km/h (0 Bft)
22.06.2009 23:08 20,3 C 13,6 C 0,0 UV-I 0,0 C 52 % 75 % 0 % 1027,2 hPa 0,0 l/m 0,0 km/h (0 Bft) 0 min 0,0 km/h (0 Bft)
22.06.2009 23:10 20,3 C 13,7 C 0,0 UV-I 0,0 C 52 % 75 % 0 % 1027,2 hPa 0,0 l/m 0,0 km/h (0 Bft) 0 min 0,0 km/h (0 Bft)
22.06.2009 23:12 20,3 C 13,5 C 0,0 UV-I 0,0 C 52 % 75 % 0 % 1027,2 hPa 0,0 l/m 0,0 km/h (0 Bft) 0 min 0,0 km/h (0 Bft)
22.06.2009 23:14 20,3 C 13,5 C 0,0 UV-I 0,0 C 52 % 76 % 0 % 1027,2 hPa 0,0 l/m 0,0 km/h (0 Bft) 0 min 0,0 km/h (0 Bft)
22.06.2009 23:16 20,3 C 13,5 C 0,0 UV-I 0,0 C 52 % 76 % 0 % 1027,2 hPa 0,0 l/m 0,0 km/h (0 Bft) 0 min 0,0 km/h (0 Bft)
22.06.2009 23:18 20,3 C 13,4 C 0,0 UV-I 0,0 C 52 % 76 % 0 % 1027,4 hPa 0,0 l/m 0,0 km/h (0 Bft) 0 min 0,0 km/h (0 Bft)
22.06.2009 23:20 20,3 C 13,3 C 0,0 UV-I 0,0 C 52 % 76 % 0 % 1027,4 hPa 0,0 l/m 0,0 km/h (0 Bft) 0 min 0,0 km/h (0 Bft)
22.06.2009 23:22 20,3 C 13,2 C 0,0 UV-I 0,0 C 52 % 76 % 0 % 1027,4 hPa 0,0 l/m 0,0 km/h (0 Bft) 0 min 0,0 km/h (0 Bft)
22.06.2009 23:24 20,3 C 13,3 C 0,0 UV-I 0,0 C 52 % 76 % 0 % 1027,4 hPa 0,0 l/m 0,0 km/h (0 Bft) 0 min 0,0 km/h (0 Bft)
22.06.2009 23:26 20,3 C 13,2 C 0,0 UV-I 0,0 C 52 % 76 % 0 % 1027,4 hPa 0,0 l/m 0,0 km/h (0 Bft) 0 min 0,0 km/h (0 Bft)
22.06.2009 23:28 20,3 C 13,1 C 0,0 UV-I 0,0 C 52 % 77 % 0 % 1027,4 hPa 0,0 l/m 0,0 km/h (0 Bft) 0 min 0,0 km/h (0 Bft)
22.06.2009 23:30 20,2 C 13,1 C 0,0 UV-I 0,0 C 52 % 77 % 0 % 1027,4 hPa 0,0 l/m 0,0 km/h (0 Bft) 0 min 0,0 km/h (0 Bft)
22.06.2009 23:32 20,2 C 13,0 C 0,0 UV-I 0,0 C 52 % 77 % 0 % 1027,4 hPa 0,0 l/m 0,0 km/h (0 Bft) 0 min 0,0 km/h (0 Bft)
22.06.2009 23:34 20,2 C 13,1 C 0,0 UV-I 0,0 C 52 % 77 % 0 % 1027,4 hPa 0,0 l/m 0,0 km/h (0 Bft) 0 min 0,0 km/h (0 Bft)
22.06.2009 23:36 20,2 C 12,9 C 0,0 UV-I 0,0 C 52 % 77 % 0 % 1027,4 hPa 0,0 l/m 0,0 km/h (0 Bft) 0 min 0,0 km/h (0 Bft)
22.06.2009 23:40 20,2 C 12,9 C 0,0 UV-I 0,0 C 52 % 78 % 0 % 1027,3 hPa 0,0 l/m 0,0 km/h (0 Bft) 0 min 0,0 km/h (0 Bft)
22.06.2009 23:42 20,2 C 12,9 C 0,0 UV-I 0,0 C 52 % 78 % 0 % 1027,3 hPa 0,0 l/m 0,0 km/h (0 Bft) 0 min 0,0 km/h (0 Bft)
22.06.2009 23:44 20,1 C 12,8 C 0,0 UV-I 0,0 C 52 % 77 % 0 % 1027,3 hPa 0,0 l/m 0,0 km/h (0 Bft) 0 min 0,0 km/h (0 Bft)
22.06.2009 23:46 20,1 C 12,7 C 0,0 UV-I 0,0 C 52 % 78 % 0 % 1027,3 hPa 0,0 l/m 0,0 km/h (0 Bft) 0 min 0,0 km/h (0 Bft)
22.06.2009 23:48 20,1 C 12,7 C 0,0 UV-I 0,0 C 52 % 78 % 0 % 1027,3 hPa 0,0 l/m 0,0 km/h (0 Bft) 0 min 0,0 km/h (0 Bft)
22.06.2009 23:50 20,0 C 12,6 C 0,0 UV-I 0,0 C 52 % 78 % 0 % 1027,3 hPa 0,0 l/m 0,0 km/h (0 Bft) 0 min 0,0 km/h (0 Bft)
22.06.2009 23:52 20,0 C 12,6 C 0,0 UV-I 0,0 C 52 % 78 % 0 % 1027,3 hPa 0,0 l/m 0,0 km/h (0 Bft) 0 min 0,0 km/h (0 Bft)
22.06.2009 23:56 20,0 C 12,5 C 0,0 UV-I 0,0 C 53 % 78 % 0 % 1027,3 hPa 0,0 l/m 0,0 km/h (0 Bft) 0 min 0,0 km/h (0 Bft)
22.06.2009 23:58 20,0 C 12,4 C 0,0 UV-I 0,0 C 53 % 79 % 0 % 1027,5 hPa 0,0 l/m 0,0 km/h (0 Bft) 0 min 0,0 km/h (0 Bft)
_ Min-Zeit 05:38 05:32 00:00 00:00 17:52 17:36 00:00 02:58 - 00:00 - 00:00
Minimum _ 18,2 C 8,0 C 0,0 UV-I 0,0 C 47 % 50 % 0 % 1023,1 hPa - 0,0 km/h (0 Bft) - 0,0 km/h (0 Bft)
_ Max-Zeit 18:06 15:54 15:02 15:04 09:12 06:02 09:54 23:58 00:00 11:40 09:52 16:04
Maximum _ 21,5 C 19,5 C 8,3 UV-I 5,6 C 57 % 92 % 100 % 1027,5 hPa 0,0 l/m 5,8 km/h
SW (2 Bft)
2 min 19,0 km/h
W (3 Bft)
Durchschnitt _ 19,7 C 14,0 C 1,6 UV-I 0,9 C 52 % 72 % 25 % 1025,6 hPa #0,0 l/m 1,7 km/h (1 Bft) #2:14 h 2,6 km/h (1 Bft)
© 2012 W. Hausmann